Wetterdaten: Sonntag, 10.04.2016
Datum Zeit Temp. Aussen Temp. o. S. +5cm Feuchte Auss BlattFeu 1 Luftdruck Regen Sonnenschein Regendauer Solar Windben Empfang
10.04.2016 00:00 11,6 C 11,7 C 9,4 C 61 % 0 lf 1006,9 hPa 0,0 l/m 0 min 0 min 0 W/m 10,5 km/h (2 Bft) 95,65 %
10.04.2016 00:02 11,6 C 11,7 C 10,0 C 61 % 0 lf 1006,9 hPa 0,0 l/m 0 min 0 min 0 W/m 12,6 km/h (3 Bft) 100,00 %
10.04.2016 00:06 11,6 C 11,7 C 10,0 C 60 % 0 lf 1007,0 hPa 0,0 l/m 0 min 0 min 0 W/m 12,6 km/h (3 Bft) 95,74 %
10.04.2016 00:08 11,6 C 11,7 C 10,0 C 60 % 0 lf 1007,0 hPa 0,0 l/m 0 min 0 min 0 W/m 14,6 km/h (3 Bft) 95,74 %
10.04.2016 00:10 11,6 C 11,7 C 9,4 C 60 % 0 lf 1006,9 hPa 0,0 l/m 0 min 0 min 0 W/m 12,6 km/h (3 Bft) 100,00 %
10.04.2016 00:12 11,6 C 11,7 C 9,4 C 60 % 0 lf 1006,9 hPa 0,0 l/m 0 min 0 min 0 W/m 12,6 km/h (3 Bft) 95,65 %
10.04.2016 00:14 11,6 C 11,7 C 9,4 C 60 % 0 lf 1006,9 hPa 0,0 l/m 0 min 0 min 0 W/m 14,6 km/h (3 Bft) 95,74 %
10.04.2016 00:16 11,6 C 11,7 C 9,4 C 60 % 0 lf 1006,9 hPa 0,0 l/m 0 min 0 min 0 W/m 18,8 km/h (3 Bft) 95,74 %
10.04.2016 00:18 11,6 C 11,7 C 9,4 C 60 % 0 lf 1007,0 hPa 0,0 l/m 0 min 0 min 0 W/m 10,5 km/h (2 Bft) 93,62 %
10.04.2016 00:20 11,6 C 11,7 C 9,4 C 60 % 0 lf 1006,9 hPa 0,0 l/m 0 min 0 min 0 W/m 10,5 km/h (2 Bft) 97,87 %
10.04.2016 00:22 11,6 C 11,1 C 9,4 C 60 % 0 lf 1007,0 hPa 0,0 l/m 0 min 0 min 0 W/m 12,6 km/h (3 Bft) 95,74 %
10.04.2016 00:24 11,5 C 11,1 C 9,4 C 60 % 0 lf 1007,0 hPa 0,0 l/m 0 min 0 min 0 W/m 12,6 km/h (3 Bft) 95,65 %
10.04.2016 00:26 11,5 C 11,1 C 8,9 C 60 % 0 lf 1007,0 hPa 0,0 l/m 0 min 0 min 0 W/m 8,4 km/h (2 Bft) 95,74 %
10.04.2016 00:28 11,5 C 11,1 C 8,9 C 61 % 0 lf 1007,0 hPa 0,0 l/m 0 min 0 min 0 W/m 14,6 km/h (3 Bft) 97,87 %
10.04.2016 00:30 11,4 C 11,1 C 8,9 C 61 % 0 lf 1007,0 hPa 0,0 l/m 0 min 0 min 0 W/m 8,4 km/h (2 Bft) 95,74 %
10.04.2016 00:32 11,4 C 11,1 C 8,9 C 61 % 0 lf 1007,0 hPa 0,0 l/m 0 min 0 min 0 W/m 10,5 km/h (2 Bft) 95,74 %
10.04.2016 00:34 11,4 C 11,1 C 8,9 C 61 % 0 lf 1007,1 hPa 0,0 l/m 0 min 0 min 0 W/m 8,4 km/h (2 Bft) 95,74 %
10.04.2016 00:36 11,3 C 11,1 C 8,9 C 61 % 0 lf 1007,1 hPa 0,0 l/m 0 min 0 min 0 W/m 10,5 km/h (2 Bft) 97,83 %
10.04.2016 00:38 11,3 C 11,1 C 8,9 C 61 % 0 lf 1007,1 hPa 0,0 l/m 0 min 0 min 0 W/m 12,6 km/h (3 Bft) 93,62 %
10.04.2016 00:40 11,3 C 10,6 C 8,9 C 61 % 0 lf 1007,1 hPa 0,0 l/m 0 min 0 min 0 W/m 8,4 km/h (2 Bft) 97,87 %
10.04.2016 00:42 11,3 C 10,6 C 8,9 C 61 % 0 lf 1007,1 hPa 0,0 l/m 0 min 0 min 0 W/m 12,6 km/h (3 Bft) 97,87 %
10.04.2016 00:44 11,2 C 10,6 C 8,9 C 61 % 0 lf 1007,1 hPa 0,0 l/m 0 min 0 min 0 W/m 12,6 km/h (3 Bft) 91,49 %
10.04.2016 00:46 11,2 C 10,6 C 8,3 C 61 % 0 lf 1007,1 hPa 0,0 l/m 0 min 0 min 0 W/m 8,4 km/h (2 Bft) 95,74 %
10.04.2016 00:48 11,2 C 10,6 C 8,3 C 61 % 0 lf 1007,1 hPa 0,0 l/m 0 min 0 min 0 W/m 12,6 km/h (3 Bft) 95,65 %
10.04.2016 00:50 11,1 C 10,6 C 8,3 C 61 % 0 lf 1007,1 hPa 0,0 l/m 0 min 0 min 0 W/m 10,5 km/h (2 Bft) 93,62 %
10.04.2016 00:52 11,1 C 10,6 C 8,3 C 62 % 0 lf 1007,1 hPa 0,0 l/m 0 min 0 min 0 W/m 10,5 km/h (2 Bft) 93,62 %
10.04.2016 00:54 11,0 C 10,6 C 8,3 C 62 % 0 lf 1007,1 hPa 0,0 l/m 0 min 0 min 0 W/m 10,5 km/h (2 Bft) 93,62 %
10.04.2016 00:56 11,0 C 10,6 C 8,3 C 62 % 0 lf 1007,1 hPa 0,0 l/m 0 min 0 min 0 W/m 8,4 km/h (2 Bft) 95,74 %
10.04.2016 00:58 10,9 C 10,6 C 8,3 C 62 % 0 lf 1007,1 hPa 0,0 l/m 0 min 0 min 0 W/m 6,3 km/h (2 Bft) 95,65 %
10.04.2016 01:00 10,9 C 10,6 C 8,3 C 62 % 0 lf 1007,1 hPa 0,0 l/m 0 min 0 min 0 W/m 6,3 km/h (2 Bft) 95,74 %
10.04.2016 01:02 10,9 C 10,0 C 7,8 C 62 % 0 lf 1007,1 hPa 0,0 l/m 0 min 0 min 0 W/m 8,4 km/h (2 Bft) 95,74 %
10.04.2016 01:04 10,8 C 10,0 C 7,8 C 62 % 0 lf 1007,1 hPa 0,0 l/m 0 min 0 min 0 W/m 10,5 km/h (2 Bft) 93,62 %
10.04.2016 01:06 10,8 C 10,0 C 7,8 C 62 % 0 lf 1007,1 hPa 0,0 l/m 0 min 0 min 0 W/m 8,4 km/h (2 Bft) 91,49 %
10.04.2016 01:08 10,8 C 10,0 C 7,8 C 62 % 0 lf 1007,1 hPa 0,0 l/m 0 min 0 min 0 W/m 8,4 km/h (2 Bft) 93,62 %
10.04.2016 01:10 10,7 C 10,0 C 7,8 C 63 % 0 lf 1007,1 hPa 0,0 l/m 0 min 0 min 0 W/m 6,3 km/h (2 Bft) 95,65 %
10.04.2016 01:12 10,7 C 10,0 C 7,2 C 63 % 0 lf 1007,2 hPa 0,0 l/m 0 min 0 min 0 W/m 6,3 km/h (2 Bft) 95,74 %
10.04.2016 01:14 10,6 C 10,0 C 7,2 C 63 % 0 lf 1007,1 hPa 0,0 l/m 0 min 0 min 0 W/m 6,3 km/h (2 Bft) 97,87 %
10.04.2016 01:16 10,6 C 10,0 C 7,2 C 63 % 0 lf 1007,1 hPa 0,0 l/m 0 min 0 min 0 W/m 10,5 km/h (2 Bft) 93,62 %
10.04.2016 01:18 10,5 C 10,0 C 7,2 C 63 % 0 lf 1007,2 hPa 0,0 l/m 0 min 0 min 0 W/m 8,4 km/h (2 Bft) 97,87 %
10.04.2016 01:20 10,5 C 10,0 C 7,2 C 63 % 0 lf 1007,2 hPa 0,0 l/m 0 min 0 min 0 W/m 8,4 km/h (2 Bft) 95,74 %
10.04.2016 01:22 10,4 C 10,0 C 7,2 C 64 % 0 lf 1007,2 hPa 0,0 l/m 0 min 0 min 0 W/m 8,4 km/h (2 Bft) 95,65 %
10.04.2016 01:24 10,4 C 9,4 C 7,2 C 64 % 0 lf 1007,2 hPa 0,0 l/m 0 min 0 min 0 W/m 8,4 km/h (2 Bft) 93,62 %
10.04.2016 01:26 10,3 C 9,4 C 7,2 C 64 % 0 lf 1007,2 hPa 0,0 l/m 0 min 0 min 0 W/m 10,5 km/h (2 Bft) 93,62 %
10.04.2016 01:28 10,3 C 9,4 C 7,2 C 64 % 0 lf 1007,3 hPa 0,0 l/m 0 min 0 min 0 W/m 8,4 km/h (2 Bft) 91,49 %
10.04.2016 01:30 10,2 C 9,4 C 7,2 C 65 % 0 lf 1007,3 hPa 0,0 l/m 0 min 0 min 0 W/m 8,4 km/h (2 Bft) 97,87 %
10.04.2016 01:32 10,2 C 9,4 C 7,2 C 65 % 0 lf 1007,2 hPa 0,0 l/m 0 min 0 min 0 W/m 10,5 km/h (2 Bft) 97,87 %
10.04.2016 01:34 10,1 C 9,4 C 7,2 C 65 % 0 lf 1007,3 hPa 0,0 l/m 0 min 0 min 0 W/m 12,6 km/h (3 Bft) 97,83 %
10.04.2016 01:36 10,1 C 9,4 C 7,2 C 65 % 0 lf 1007,4 hPa 0,0 l/m 0 min 0 min 0 W/m 10,5 km/h (2 Bft) 95,74 %
10.04.2016 01:38 10,0 C 9,4 C 7,2 C 65 % 0 lf 1007,3 hPa 0,0 l/m 0 min 0 min 0 W/m 8,4 km/h (2 Bft) 100,00 %
10.04.2016 01:40 10,0 C 9,4 C 7,2 C 66 % 0 lf 1007,4 hPa 0,0 l/m 0 min 0 min 0 W/m 8,4 km/h (2 Bft) 95,74 %
10.04.2016 01:42 9,9 C 9,4 C 7,2 C 66 % 0 lf 1007,4 hPa 0,0 l/m 0 min 0 min 0 W/m 6,3 km/h (2 Bft) 95,74 %
10.04.2016 01:44 9,9 C 9,4 C 7,2 C 66 % 0 lf 1007,4 hPa 0,0 l/m 0 min 0 min 0 W/m 8,4 km/h (2 Bft) 95,74 %
10.04.2016 01:46 9,8 C 9,4 C 7,2 C 66 % 0 lf 1007,5 hPa 0,0 l/m 0 min 0 min 0 W/m 10,5 km/h (2 Bft) 91,30 %
10.04.2016 01:48 9,8 C 9,4 C 7,2 C 66 % 0 lf 1007,5 hPa 0,0 l/m 0 min 0 min 0 W/m 10,5 km/h (2 Bft) 97,87 %
10.04.2016 01:50 9,8 C 9,4 C 7,2 C 67 % 0 lf 1007,5 hPa 0,0 l/m 0 min 0 min 0 W/m 8,4 km/h (2 Bft) 97,87 %
10.04.2016 01:52 9,7 C 9,4 C 7,2 C 67 % 0 lf 1007,5 hPa 0,0 l/m 0 min 0 min 0 W/m 8,4 km/h (2 Bft) 97,87 %
10.04.2016 01:54 9,7 C 9,4 C 7,2 C 67 % 0 lf 1007,5 hPa 0,0 l/m 0 min 0 min 0 W/m 10,5 km/h (2 Bft) 91,49 %
10.04.2016 01:56 9,6 C 9,4 C 7,8 C 68 % 0 lf 1007,5 hPa 0,0 l/m 0 min 0 min 0 W/m 8,4 km/h (2 Bft) 95,74 %
10.04.2016 01:58 9,6 C 9,4 C 7,2 C 68 % 0 lf 1007,6 hPa 0,0 l/m 0 min 0 min 0 W/m 12,6 km/h (3 Bft) 97,83 %
10.04.2016 02:00 9,6 C 9,4 C 7,2 C 68 % 0 lf 1007,5 hPa 0,0 l/m 0 min 0 min 0 W/m 10,5 km/h (2 Bft) 97,87 %
10.04.2016 02:02 9,6 C 8,9 C 7,2 C 68 % 0 lf 1007,6 hPa 0,0 l/m 0 min 0 min 0 W/m 10,5 km/h (2 Bft) 95,74 %
10.04.2016 02:04 9,5 C 8,9 C 7,2 C 69 % 0 lf 1007,6 hPa 0,0 l/m 0 min 0 min 0 W/m 12,6 km/h (3 Bft) 95,74 %
10.04.2016 02:06 9,4 C 8,9 C 7,2 C 69 % 0 lf 1007,6 hPa 0,0 l/m 0 min 0 min 0 W/m 10,5 km/h (2 Bft) 100,00 %
10.04.2016 02:08 9,4 C 8,9 C 7,2 C 69 % 0 lf 1007,7 hPa 0,0 l/m 0 min 0 min 0 W/m 10,5 km/h (2 Bft) 97,83 %
10.04.2016 02:10 9,4 C 8,9 C 7,2 C 69 % 0 lf 1007,6 hPa 0,0 l/m 0 min 0 min 0 W/m 8,4 km/h (2 Bft) 93,62 %
10.04.2016 02:12 9,4 C 8,9 C 7,2 C 70 % 0 lf 1007,6 hPa 0,0 l/m 0 min 0 min 0 W/m 10,5 km/h (2 Bft) 93,62 %
10.04.2016 02:14 9,3 C 8,9 C 7,2 C 70 % 0 lf 1007,5 hPa 0,0 l/m 0 min 0 min 0 W/m 10,5 km/h (2 Bft) 95,74 %
10.04.2016 02:16 9,3 C 8,9 C 7,2 C 70 % 0 lf 1007,5 hPa 0,0 l/m 0 min 0 min 0 W/m 12,6 km/h (3 Bft) 97,87 %
10.04.2016 02:18 9,3 C 8,9 C 7,2 C 70 % 0 lf 1007,6 hPa 0,0 l/m 0 min 0 min 0 W/m 14,6 km/h (3 Bft) 93,62 %
10.04.2016 02:20 9,3 C 8,9 C 7,2 C 71 % 0 lf 1007,6 hPa 0,0 l/m 0 min 0 min 0 W/m 10,5 km/h (2 Bft) 97,83 %
10.04.2016 02:22 9,2 C 8,9 C 7,2 C 71 % 0 lf 1007,5 hPa 0,0 l/m 0 min 0 min 0 W/m 12,6 km/h (3 Bft) 97,87 %
10.04.2016 02:24 9,2 C 8,9 C 7,2 C 71 % 0 lf 1007,5 hPa 0,0 l/m 0 min 0 min 0 W/m 12,6 km/h (3 Bft) 97,87 %
10.04.2016 02:26 9,2 C 8,9 C 7,2 C 71 % 0 lf 1007,5 hPa 0,0 l/m 0 min 0 min 0 W/m 12,6 km/h (3 Bft) 97,87 %
10.04.2016 02:28 9,2 C 8,9 C 7,2 C 72 % 0 lf 1007,5 hPa 0,0 l/m 0 min 0 min 0 W/m 8,4 km/h (2 Bft) 95,74 %
10.04.2016 02:30 9,1 C 8,9 C 7,2 C 72 % 0 lf 1007,5 hPa 0,0 l/m 0 min 0 min 0 W/m 8,4 km/h (2 Bft) 95,74 %
10.04.2016 02:32 9,1 C 8,9 C 6,7 C 72 % 0 lf 1007,5 hPa 0,0 l/m 0 min 0 min 0 W/m 8,4 km/h (2 Bft) 97,83 %
10.04.2016 02:34 9,1 C 8,3 C 6,7 C 72 % 0 lf 1007,5 hPa 0,0 l/m 0 min 0 min 0 W/m 8,4 km/h (2 Bft) 95,74 %
10.04.2016 02:36 9,0 C 8,3 C 6,7 C 72 % 0 lf 1007,5 hPa 0,0 l/m 0 min 0 min 0 W/m 14,6 km/h (3 Bft) 95,74 %
10.04.2016 02:38 9,0 C 8,3 C 6,7 C 72 % 0 lf 1007,6 hPa 0,0 l/m 0 min 0 min 0 W/m 10,5 km/h (2 Bft) 97,87 %
10.04.2016 02:40 8,9 C 8,3 C 6,7 C 72 % 0 lf 1007,6 hPa 0,0 l/m 0 min 0 min 0 W/m 14,6 km/h (3 Bft) 97,87 %
10.04.2016 02:42 8,9 C 8,3 C 6,7 C 73 % 0 lf 1007,5 hPa 0,0 l/m 0 min 0 min 0 W/m 10,5 km/h (2 Bft) 97,87 %
10.04.2016 02:44 8,9 C 8,3 C 6,7 C 73 % 0 lf 1007,6 hPa 0,0 l/m 0 min 0 min 0 W/m 8,4 km/h (2 Bft) 93,48 %
10.04.2016 02:46 8,8 C 8,9 C 6,7 C 73 % 0 lf 1007,5 hPa 0,0 l/m 0 min 0 min 0 W/m 8,4 km/h (2 Bft) 97,87 %
10.04.2016 02:48 8,8 C 8,9 C 6,7 C 73 % 0 lf 1007,6 hPa 0,0 l/m 0 min 0 min 0 W/m 8,4 km/h (2 Bft) 97,87 %
10.04.2016 02:50 8,8 C 8,9 C 7,2 C 73 % 0 lf 1007,7 hPa 0,0 l/m 0 min 0 min 0 W/m 8,4 km/h (2 Bft) 97,87 %
10.04.2016 02:52 8,8 C 8,9 C 7,2 C 73 % 0 lf 1007,7 hPa 0,0 l/m 0 min 0 min 0 W/m 8,4 km/h (2 Bft) 100,00 %
10.04.2016 02:54 8,8 C 8,9 C 7,2 C 73 % 0 lf 1007,6 hPa 0,0 l/m 0 min 0 min 0 W/m 8,4 km/h (2 Bft) 97,87 %
10.04.2016 02:56 8,7 C 8,9 C 7,2 C 73 % 0 lf 1007,7 hPa 0,0 l/m 0 min 0 min 0 W/m 8,4 km/h (2 Bft) 97,83 %
10.04.2016 02:58 8,7 C 8,9 C 7,2 C 74 % 0 lf 1007,7 hPa 0,0 l/m 0 min 0 min 0 W/m 6,3 km/h (2 Bft) 97,87 %
10.04.2016 03:00 8,7 C 8,9 C 7,2 C 74 % 0 lf 1007,8 hPa 0,0 l/m 0 min 0 min 0 W/m 8,4 km/h (2 Bft) 100,00 %
10.04.2016 03:02 8,7 C 8,9 C 7,2 C 74 % 0 lf 1007,8 hPa 0,0 l/m 0 min 0 min 0 W/m 8,4 km/h (2 Bft) 97,87 %
10.04.2016 03:04 8,7 C 8,9 C 7,2 C 74 % 0 lf 1007,8 hPa 0,0 l/m 0 min 0 min 0 W/m 8,4 km/h (2 Bft) 100,00 %
10.04.2016 03:06 8,7 C 8,9 C 7,2 C 74 % 0 lf 1007,8 hPa 0,0 l/m 0 min 0 min 0 W/m 12,6 km/h (3 Bft) 100,00 %
10.04.2016 03:08 8,7 C 8,3 C 7,2 C 74 % 0 lf 1007,8 hPa 0,0 l/m 0 min 0 min 0 W/m 10,5 km/h (2 Bft) 97,83 %
10.04.2016 03:10 8,7 C 8,3 C 7,2 C 74 % 0 lf 1007,8 hPa 0,0 l/m 0 min 0 min 0 W/m 10,5 km/h (2 Bft) 100,00 %
10.04.2016 03:12 8,7 C 8,3 C 6,7 C 74 % 0 lf 1007,9 hPa 0,0 l/m 0 min 0 min 0 W/m 8,4 km/h (2 Bft) 97,87 %
10.04.2016 03:14 8,7 C 8,3 C 6,7 C 74 % 0 lf 1007,8 hPa 0,0 l/m 0 min 0 min 0 W/m 10,5 km/h (2 Bft) 97,87 %
10.04.2016 03:16 8,7 C 8,3 C 7,2 C 75 % 0 lf 1007,9 hPa 0,0 l/m 0 min 0 min 0 W/m 12,6 km/h (3 Bft) 100,00 %
10.04.2016 03:18 8,6 C 8,3 C 6,7 C 75 % 0 lf 1008,1 hPa 0,0 l/m 0 min 0 min 0 W/m 8,4 km/h (2 Bft) 97,87 %
10.04.2016 03:20 8,6 C 8,3 C 6,7 C 75 % 0 lf 1008,3 hPa 0,0 l/m 0 min 0 min 0 W/m 12,6 km/h (3 Bft) 95,65 %
10.04.2016 03:22 8,6 C 8,3 C 7,2 C 75 % 0 lf 1008,2 hPa 0,0 l/m 0 min 0 min 0 W/m 12,6 km/h (3 Bft) 97,87 %
10.04.2016 03:24 8,6 C 8,3 C 7,2 C 75 % 0 lf 1008,0 hPa 0,0 l/m 0 min 0 min 0 W/m 6,3 km/h (2 Bft) 95,74 %
10.04.2016 03:26 8,6 C 8,3 C 7,2 C 75 % 0 lf 1008,1 hPa 0,0 l/m 0 min 0 min 0 W/m 12,6 km/h (3 Bft) 95,74 %
10.04.2016 03:28 8,6 C 8,3 C 7,2 C 75 % 0 lf 1008,4 hPa 0,0 l/m 0 min 0 min 0 W/m 14,6 km/h (3 Bft) 95,74 %
10.04.2016 03:30 8,6 C 8,3 C 7,2 C 75 % 0 lf 1008,4 hPa 0,0 l/m 0 min 0 min 0 W/m 16,7 km/h (3 Bft) 95,65 %
10.04.2016 03:32 8,6 C 8,3 C 7,2 C 75 % 0 lf 1008,3 hPa 0,0 l/m 0 min 0 min 0 W/m 14,6 km/h (3 Bft) 95,74 %
10.04.2016 03:34 8,5 C 8,9 C 7,2 C 74 % 0 lf 1007,9 hPa 0,0 l/m 0 min 0 min 0 W/m 12,6 km/h (3 Bft) 93,62 %
10.04.2016 03:36 8,5 C 8,9 C 7,2 C 74 % 0 lf 1007,9 hPa 0,0 l/m 0 min 0 min 0 W/m 10,5 km/h (2 Bft) 95,74 %
10.04.2016 03:38 8,5 C 8,9 C 7,2 C 74 % 0 lf 1008,0 hPa 0,0 l/m 0 min 0 min 0 W/m 6,3 km/h (2 Bft) 93,62 %
10.04.2016 03:40 8,5 C 8,9 C 7,2 C 74 % 0 lf 1008,0 hPa 0,0 l/m 0 min 0 min 0 W/m 12,6 km/h (3 Bft) 95,74 %
10.04.2016 03:42 8,6 C 8,9 C 7,2 C 73 % 0 lf 1008,2 hPa 0,0 l/m 0 min 0 min 0 W/m 12,6 km/h (3 Bft) 95,65 %
10.04.2016 03:44 8,6 C 8,9 C 7,2 C 73 % 0 lf 1008,1 hPa 0,0 l/m 0 min 0 min 0 W/m 10,5 km/h (2 Bft) 93,62 %
10.04.2016 03:46 8,6 C 8,9 C 7,2 C 73 % 0 lf 1008,2 hPa 0,0 l/m 0 min 0 min 0 W/m 6,3 km/h (2 Bft) 93,62 %
10.04.2016 03:48 8,6 C 8,9 C 7,2 C 73 % 0 lf 1008,3 hPa 0,0 l/m 0 min 0 min 0 W/m 6,3 km/h (2 Bft) 95,74 %
10.04.2016 03:50 8,6 C 8,9 C 7,2 C 73 % 0 lf 1008,3 hPa 0,0 l/m 0 min 0 min 0 W/m 6,3 km/h (2 Bft) 93,62 %
10.04.2016 03:52 8,6 C 8,9 C 7,2 C 73 % 0 lf 1008,4 hPa 0,0 l/m 0 min 0 min 0 W/m 6,3 km/h (2 Bft) 97,87 %
10.04.2016 03:54 8,6 C 8,3 C 7,2 C 73 % 0 lf 1008,3 hPa 0,0 l/m 0 min 0 min 0 W/m 4,2 km/h (1 Bft) 95,65 %
10.04.2016 03:56 8,6 C 8,3 C 7,2 C 73 % 0 lf 1008,4 hPa 0,0 l/m 0 min 0 min 0 W/m 4,2 km/h (1 Bft) 95,74 %
10.04.2016 03:58 8,6 C 8,3 C 7,2 C 73 % 0 lf 1008,4 hPa 0,0 l/m 0 min 0 min 0 W/m 6,3 km/h (2 Bft) 97,87 %
10.04.2016 04:00 8,6 C 8,3 C 6,7 C 73 % 0 lf 1008,4 hPa 0,0 l/m 0 min 0 min 0 W/m 4,2 km/h (1 Bft) 95,74 %
10.04.2016 04:05 8,6 C 8,9 C 6,7 C 74 % 0 lf 1008,4 hPa 0,0 l/m 0 min 0 min 0 W/m 6,3 km/h (2 Bft) 96,67 %
10.04.2016 04:06 8,6 C 8,9 C 6,7 C 74 % 0 lf 1008,4 hPa 0,0 l/m 0 min 0 min 0 W/m 4,2 km/h (1 Bft) 95,65 %
10.04.2016 04:08 8,6 C 8,9 C 6,7 C 74 % 0 lf 1008,3 hPa 0,0 l/m 0 min 0 min 0 W/m 4,2 km/h (1 Bft) 95,74 %
10.04.2016 04:10 8,6 C 8,3 C 6,7 C 74 % 0 lf 1008,3 hPa 0,0 l/m 0 min 0 min 0 W/m 4,2 km/h (1 Bft) 95,74 %
10.04.2016 04:12 8,6 C 8,9 C 6,7 C 74 % 0 lf 1008,3 hPa 0,0 l/m 0 min 0 min 0 W/m 8,4 km/h (2 Bft) 95,74 %
10.04.2016 04:14 8,6 C 8,9 C 6,7 C 74 % 0 lf 1008,3 hPa 0,0 l/m 0 min 0 min 0 W/m 6,3 km/h (2 Bft) 97,87 %
10.04.2016 04:16 8,6 C 8,9 C 6,7 C 74 % 0 lf 1008,4 hPa 0,0 l/m 0 min 0 min 0 W/m 6,3 km/h (2 Bft) 100,00 %
10.04.2016 04:18 8,6 C 8,9 C 6,7 C 74 % 0 lf 1008,4 hPa 0,0 l/m 0 min 0 min 0 W/m 6,3 km/h (2 Bft) 91,30 %
10.04.2016 04:20 8,6 C 8,9 C 6,7 C 74 % 0 lf 1008,5 hPa 0,0 l/m 0 min 0 min 0 W/m 6,3 km/h (2 Bft) 89,36 %
10.04.2016 04:22 8,6 C 8,9 C 6,7 C 74 % 0 lf 1008,4 hPa 0,0 l/m 0 min 0 min 0 W/m 6,3 km/h (2 Bft) 95,74 %
10.04.2016 04:24 8,6 C 8,9 C 6,7 C 73 % 0 lf 1008,4 hPa 0,0 l/m 0 min 0 min 0 W/m 4,2 km/h (1 Bft) 95,74 %
10.04.2016 04:26 8,6 C 8,9 C 6,7 C 73 % 0 lf 1008,3 hPa 0,0 l/m 0 min 0 min 0 W/m 6,3 km/h (2 Bft) 97,87 %
10.04.2016 04:28 8,6 C 8,3 C 6,7 C 73 % 0 lf 1008,4 hPa 0,0 l/m 0 min 0 min 0 W/m 6,3 km/h (2 Bft) 97,83 %
10.04.2016 04:30 8,6 C 8,3 C 6,7 C 73 % 0 lf 1008,4 hPa 0,0 l/m 0 min 0 min 0 W/m 6,3 km/h (2 Bft) 97,87 %
10.04.2016 04:32 8,6 C 8,3 C 6,7 C 73 % 0 lf 1008,4 hPa 0,0 l/m 0 min 0 min 0 W/m 8,4 km/h (2 Bft) 97,87 %
10.04.2016 04:34 8,6 C 8,3 C 6,7 C 73 % 0 lf 1008,4 hPa 0,0 l/m 0 min 0 min 0 W/m 8,4 km/h (2 Bft) 97,87 %
10.04.2016 04:36 8,6 C 8,3 C 6,7 C 73 % 0 lf 1008,3 hPa 0,0 l/m 0 min 0 min 0 W/m 6,3 km/h (2 Bft) 95,74 %
10.04.2016 04:38 8,6 C 8,3 C 6,7 C 73 % 0 lf 1008,3 hPa 0,0 l/m 0 min 0 min 0 W/m 4,2 km/h (1 Bft) 95,74 %
10.04.2016 04:40 8,6 C 8,3 C 6,7 C 73 % 0 lf 1008,3 hPa 0,0 l/m 0 min 0 min 0 W/m 4,2 km/h (1 Bft) 97,83 %
10.04.2016 04:42 8,6 C 8,3 C 6,7 C 73 % 0 lf 1008,3 hPa 0,0 l/m 0 min 0 min 0 W/m 6,3 km/h (2 Bft) 97,87 %
10.04.2016 04:44 8,6 C 8,3 C 6,7 C 73 % 0 lf 1008,3 hPa 0,0 l/m 0 min 0 min 0 W/m 6,3 km/h (2 Bft) 97,87 %
10.04.2016 04:46 8,6 C 8,3 C 6,7 C 73 % 0 lf 1008,4 hPa 0,0 l/m 0 min 0 min 0 W/m 4,2 km/h (1 Bft) 95,74 %
10.04.2016 04:48 8,5 C 8,3 C 6,7 C 73 % 0 lf 1008,3 hPa 0,0 l/m 0 min 0 min 0 W/m 6,3 km/h (2 Bft) 97,87 %
10.04.2016 04:50 8,5 C 8,3 C 6,7 C 74 % 0 lf 1008,4 hPa 0,0 l/m 0 min 0 min 0 W/m 4,2 km/h (1 Bft) 93,62 %
10.04.2016 04:52 8,5 C 8,3 C 6,7 C 74 % 0 lf 1008,4 hPa 0,0 l/m 0 min 0 min 0 W/m 4,2 km/h (1 Bft) 95,65 %
10.04.2016 04:54 8,5 C 8,3 C 6,7 C 74 % 0 lf 1008,4 hPa 0,0 l/m 0 min 0 min 0 W/m 4,2 km/h (1 Bft) 95,74 %
10.04.2016 04:56 8,4 C 8,3 C 6,7 C 74 % 0 lf 1008,4 hPa 0,0 l/m 0 min 0 min 0 W/m 2,1 km/h (1 Bft) 95,74 %
10.04.2016 04:58 8,4 C 8,3 C 6,7 C 74 % 0 lf 1008,3 hPa 0,0 l/m 0 min 0 min 0 W/m 2,1 km/h (1 Bft) 95,74 %
10.04.2016 05:00 8,4 C 8,3 C 6,7 C 74 % 0 lf 1008,4 hPa 0,0 l/m 0 min 0 min 0 W/m 0,0 km/h (0 Bft) 93,62 %
10.04.2016 05:02 8,4 C 8,3 C 6,7 C 74 % 0 lf 1008,4 hPa 0,0 l/m 0 min 0 min 0 W/m 0,0 km/h (0 Bft) 95,74 %
10.04.2016 05:04 8,4 C 8,3 C 6,7 C 74 % 0 lf 1008,5 hPa 0,0 l/m 0 min 0 min 0 W/m 0,0 km/h (0 Bft) 89,13 %
10.04.2016 05:06 8,4 C 8,3 C 6,7 C 74 % 0 lf 1008,5 hPa 0,0 l/m 0 min 0 min 0 W/m 0,0 km/h (0 Bft) 91,49 %
10.04.2016 05:08 8,4 C 8,3 C 6,7 C 74 % 0 lf 1008,5 hPa 0,0 l/m 0 min 0 min 0 W/m 2,1 km/h (1 Bft) 91,49 %
10.04.2016 05:10 8,4 C 8,3 C 6,7 C 74 % 0 lf 1008,5 hPa 0,0 l/m 0 min 0 min 0 W/m 2,1 km/h (1 Bft) 95,74 %
10.04.2016 05:12 8,4 C 8,3 C 6,7 C 75 % 0 lf 1008,5 hPa 0,0 l/m 0 min 0 min 0 W/m 4,2 km/h (1 Bft) 95,74 %
10.04.2016 05:14 8,4 C 8,3 C 6,7 C 75 % 0 lf 1008,6 hPa 0,0 l/m 0 min 0 min 0 W/m 4,2 km/h (1 Bft) 95,74 %
10.04.2016 05:16 8,3 C 8,3 C 6,7 C 75 % 0 lf 1008,6 hPa 0,0 l/m 0 min 0 min 0 W/m 4,2 km/h (1 Bft) 95,65 %
10.04.2016 05:18 8,3 C 8,3 C 6,7 C 75 % 0 lf 1008,6 hPa 0,0 l/m 0 min 0 min 0 W/m 4,2 km/h (1 Bft) 95,74 %
10.04.2016 05:20 8,3 C 8,3 C 6,7 C 75 % 0 lf 1008,6 hPa 0,0 l/m 0 min 0 min 0 W/m 4,2 km/h (1 Bft) 91,49 %
10.04.2016 05:22 8,3 C 8,3 C 6,7 C 75 % 0 lf 1008,6 hPa 0,0 l/m 0 min 0 min 0 W/m 4,2 km/h (1 Bft) 93,62 %
10.04.2016 05:24 8,3 C 8,3 C 6,7 C 75 % 0 lf 1008,6 hPa 0,0 l/m 0 min 0 min 0 W/m 4,2 km/h (1 Bft) 93,62 %
10.04.2016 05:26 8,3 C 8,3 C 6,7 C 75 % 0 lf 1008,6 hPa 0,0 l/m 0 min 0 min 0 W/m 6,3 km/h (2 Bft) 97,87 %
10.04.2016 05:28 8,3 C 8,3 C 6,7 C 75 % 0 lf 1008,6 hPa 0,0 l/m 0 min 0 min 0 W/m 8,4 km/h (2 Bft) 93,48 %
10.04.2016 05:30 8,3 C 8,3 C 6,7 C 75 % 0 lf 1008,6 hPa 0,0 l/m 0 min 0 min 0 W/m 4,2 km/h (1 Bft) 95,74 %
10.04.2016 05:32 8,2 C 8,3 C 6,7 C 75 % 0 lf 1008,6 hPa 0,0 l/m 0 min 0 min 0 W/m 4,2 km/h (1 Bft) 95,74 %
10.04.2016 05:34 8,2 C 8,3 C 6,7 C 75 % 0 lf 1008,7 hPa 0,0 l/m 0 min 0 min 0 W/m 4,2 km/h (1 Bft) 93,62 %
10.04.2016 05:36 8,2 C 8,3 C 6,7 C 76 % 0 lf 1008,7 hPa 0,0 l/m 0 min 0 min 0 W/m 6,3 km/h (2 Bft) 91,49 %
10.04.2016 05:38 8,2 C 8,3 C 6,7 C 76 % 0 lf 1008,7 hPa 0,0 l/m 0 min 0 min 0 W/m 4,2 km/h (1 Bft) 95,74 %
10.04.2016 05:40 8,2 C 8,3 C 6,7 C 76 % 0 lf 1008,7 hPa 0,0 l/m 0 min 0 min 0 W/m 6,3 km/h (2 Bft) 93,48 %
10.04.2016 05:42 8,2 C 8,3 C 6,7 C 76 % 0 lf 1008,7 hPa 0,0 l/m 0 min 0 min 0 W/m 4,2 km/h (1 Bft) 95,74 %
10.04.2016 05:44 8,2 C 8,3 C 6,7 C 76 % 0 lf 1008,7 hPa 0,0 l/m 0 min 0 min 0 W/m 4,2 km/h (1 Bft) 100,00 %
10.04.2016 05:46 8,2 C 8,3 C 6,7 C 76 % 0 lf 1008,7 hPa 0,0 l/m 0 min 0 min 0 W/m 2,1 km/h (1 Bft) 97,87 %
10.04.2016 05:48 8,2 C 8,3 C 6,7 C 76 % 0 lf 1008,7 hPa 0,0 l/m 0 min 0 min 0 W/m 4,2 km/h (1 Bft) 100,00 %
10.04.2016 05:50 8,2 C 8,3 C 6,7 C 76 % 0 lf 1008,7 hPa 0,0 l/m 0 min 0 min 0 W/m 6,3 km/h (2 Bft) 97,83 %
10.04.2016 05:52 8,2 C 8,3 C 6,7 C 76 % 0 lf 1008,8 hPa 0,0 l/m 0 min 0 min 0 W/m 4,2 km/h (1 Bft) 100,00 %
10.04.2016 05:54 8,2 C 8,3 C 6,7 C 76 % 0 lf 1008,8 hPa 0,0 l/m 0 min 0 min 0 W/m 4,2 km/h (1 Bft) 97,87 %
10.04.2016 05:56 8,2 C 8,3 C 6,7 C 76 % 0 lf 1008,8 hPa 0,0 l/m 0 min 0 min 0 W/m 4,2 km/h (1 Bft) 97,87 %
10.04.2016 05:58 8,2 C 8,3 C 6,7 C 76 % 0 lf 1008,8 hPa 0,0 l/m 0 min 0 min 0 W/m 4,2 km/h (1 Bft) 97,87 %
10.04.2016 06:00 8,2 C 8,3 C 6,7 C 76 % 0 lf 1008,8 hPa 0,0 l/m 0 min 0 min 0 W/m 4,2 km/h (1 Bft) 97,87 %
10.04.2016 06:02 8,2 C 8,3 C 6,7 C 76 % 0 lf 1008,9 hPa 0,0 l/m 0 min 0 min 0 W/m 6,3 km/h (2 Bft) 100,00 %
10.04.2016 06:04 8,2 C 8,3 C 6,7 C 77 % 0 lf 1008,9 hPa 0,0 l/m 0 min 0 min 0 W/m 6,3 km/h (2 Bft) 100,00 %
10.04.2016 06:06 8,2 C 8,3 C 6,7 C 77 % 0 lf 1008,9 hPa 0,0 l/m 0 min 0 min 0 W/m 4,2 km/h (1 Bft) 95,74 %
10.04.2016 06:08 8,2 C 8,3 C 6,7 C 77 % 0 lf 1008,9 hPa 0,0 l/m 0 min 0 min 0 W/m 4,2 km/h (1 Bft) 95,74 %
10.04.2016 06:10 8,2 C 8,3 C 6,7 C 77 % 0 lf 1008,9 hPa 0,0 l/m 0 min 0 min 0 W/m 4,2 km/h (1 Bft) 97,87 %
10.04.2016 06:12 8,2 C 8,3 C 6,7 C 77 % 0 lf 1009,0 hPa 0,0 l/m 0 min 0 min 0 W/m 4,2 km/h (1 Bft) 95,74 %
10.04.2016 06:14 8,2 C 8,3 C 6,7 C 77 % 0 lf 1009,0 hPa 0,0 l/m 0 min 0 min 0 W/m 6,3 km/h (2 Bft) 97,83 %
10.04.2016 06:16 8,2 C 8,3 C 6,7 C 77 % 0 lf 1009,1 hPa 0,0 l/m 0 min 0 min 0 W/m 2,1 km/h (1 Bft) 95,74 %
10.04.2016 06:18 8,1 C 8,3 C 6,7 C 77 % 0 lf 1009,1 hPa 0,0 l/m 0 min 0 min 0 W/m 6,3 km/h (2 Bft) 97,87 %
10.04.2016 06:20 8,2 C 8,3 C 6,7 C 77 % 0 lf 1009,1 hPa 0,0 l/m 0 min 0 min 0 W/m 6,3 km/h (2 Bft) 97,87 %
10.04.2016 06:22 8,1 C 8,3 C 6,7 C 77 % 0 lf 1009,1 hPa 0,0 l/m 0 min 0 min 0 W/m 2,1 km/h (1 Bft) 97,87 %
10.04.2016 06:24 8,1 C 8,3 C 6,7 C 77 % 0 lf 1009,1 hPa 0,0 l/m 0 min 0 min 0 W/m 0,0 km/h (0 Bft) 95,74 %
10.04.2016 06:26 8,1 C 7,8 C 6,7 C 77 % 0 lf 1009,1 hPa 0,0 l/m 0 min 0 min 0 W/m 4,2 km/h (1 Bft) 93,48 %
10.04.2016 06:28 8,1 C 7,8 C 6,7 C 77 % 0 lf 1009,1 hPa 0,0 l/m 0 min 0 min 0 W/m 2,1 km/h (1 Bft) 97,87 %
10.04.2016 06:30 8,1 C 7,8 C 6,7 C 77 % 0 lf 1009,1 hPa 0,0 l/m 0 min 0 min 0 W/m 2,1 km/h (1 Bft) 97,87 %
10.04.2016 06:32 8,1 C 7,8 C 6,7 C 77 % 0 lf 1009,2 hPa 0,0 l/m 0 min 0 min 0 W/m 2,1 km/h (1 Bft) 95,74 %
10.04.2016 06:34 8,1 C 7,8 C 6,7 C 77 % 1 lf 1009,2 hPa 0,0 l/m 0 min 0 min 0 W/m 4,2 km/h (1 Bft) 97,87 %
10.04.2016 06:36 8,1 C 7,8 C 6,7 C 78 % 1 lf 1009,3 hPa 0,0 l/m 0 min 0 min 0 W/m 2,1 km/h (1 Bft) 95,74 %
10.04.2016 06:38 8,1 C 7,8 C 6,7 C 77 % 0 lf 1009,2 hPa 0,0 l/m 0 min 0 min 0 W/m 0,0 km/h (0 Bft) 97,83 %
10.04.2016 06:40 8,1 C 7,8 C 6,7 C 78 % 1 lf 1009,3 hPa 0,0 l/m 0 min 0 min 0 W/m 2,1 km/h (1 Bft) 97,87 %
10.04.2016 06:42 8,1 C 7,8 C 6,7 C 78 % 0 lf 1009,3 hPa 0,0 l/m 0 min 0 min 0 W/m 6,3 km/h (2 Bft) 97,87 %
10.04.2016 06:44 8,1 C 7,8 C 6,7 C 78 % 0 lf 1009,3 hPa 0,0 l/m 0 min 0 min 0 W/m 4,2 km/h (1 Bft) 95,74 %
10.04.2016 06:46 8,1 C 7,8 C 6,7 C 77 % 0 lf 1009,3 hPa 0,0 l/m 0 min 0 min 0 W/m 8,4 km/h (2 Bft) 97,87 %
10.04.2016 06:48 8,1 C 7,8 C 6,7 C 78 % 0 lf 1009,3 hPa 0,0 l/m 0 min 0 min 0 W/m 10,5 km/h (2 Bft) 95,65 %
10.04.2016 06:50 8,1 C 7,8 C 6,1 C 78 % 0 lf 1009,3 hPa 0,0 l/m 0 min 0 min 4 W/m 6,3 km/h (2 Bft) 97,87 %
10.04.2016 06:52 8,1 C 7,8 C 6,1 C 78 % 0 lf 1009,4 hPa 0,0 l/m 0 min 0 min 6 W/m 8,4 km/h (2 Bft) 93,62 %
10.04.2016 06:54 8,0 C 7,8 C 6,7 C 78 % 0 lf 1009,4 hPa 0,0 l/m 0 min 0 min 7 W/m 4,2 km/h (1 Bft) 95,74 %
10.04.2016 06:56 8,0 C 7,8 C 6,7 C 78 % 0 lf 1009,4 hPa 0,0 l/m 0 min 0 min 9 W/m 6,3 km/h (2 Bft) 97,87 %
10.04.2016 06:58 8,0 C 7,8 C 6,7 C 79 % 0 lf 1009,4 hPa 0,0 l/m 0 min 0 min 9 W/m 8,4 km/h (2 Bft) 100,00 %
10.04.2016 07:00 8,0 C 7,8 C 6,7 C 79 % 0 lf 1009,4 hPa 0,0 l/m 0 min 0 min 8 W/m 8,4 km/h (2 Bft) 100,00 %
10.04.2016 07:02 8,1 C 7,8 C 6,7 C 80 % 0 lf 1009,5 hPa 0,0 l/m 0 min 0 min 7 W/m 14,6 km/h (3 Bft) 97,87 %
10.04.2016 07:04 8,1 C 7,8 C 6,7 C 80 % 0 lf 1009,5 hPa 0,0 l/m 0 min 0 min 9 W/m 20,9 km/h (4 Bft) 97,87 %
10.04.2016 07:06 8,1 C 7,8 C 6,7 C 81 % 0 lf 1009,6 hPa 0,0 l/m 0 min 0 min 8 W/m 18,8 km/h (3 Bft) 95,74 %
10.04.2016 07:08 8,1 C 8,3 C 6,7 C 82 % 0 lf 1009,6 hPa 0,0 l/m 0 min 0 min 7 W/m 14,6 km/h (3 Bft) 97,87 %
10.04.2016 07:10 8,1 C 8,3 C 6,7 C 82 % 0 lf 1009,7 hPa 0,0 l/m 0 min 0 min 7 W/m 16,7 km/h (3 Bft) 95,74 %
10.04.2016 07:12 8,1 C 8,3 C 6,7 C 83 % 0 lf 1009,7 hPa 0,0 l/m 0 min 0 min 7 W/m 12,6 km/h (3 Bft) 97,87 %
10.04.2016 07:14 8,1 C 8,3 C 6,7 C 83 % 1 lf 1009,7 hPa 0,0 l/m 0 min 0 min 7 W/m 10,5 km/h (2 Bft) 93,48 %
10.04.2016 07:16 8,1 C 7,8 C 6,7 C 83 % 1 lf 1009,7 hPa 0,0 l/m 0 min 0 min 7 W/m 10,5 km/h (2 Bft) 97,87 %
10.04.2016 07:18 8,1 C 7,8 C 6,7 C 84 % 1 lf 1009,7 hPa 0,0 l/m 0 min 0 min 8 W/m 6,3 km/h (2 Bft) 95,74 %
10.04.2016 07:20 8,1 C 7,8 C 6,7 C 84 % 0 lf 1009,7 hPa 0,0 l/m 0 min 2 min 9 W/m 8,4 km/h (2 Bft) 95,74 %
10.04.2016 07:22 8,1 C 7,8 C 6,7 C 84 % 2 lf 1009,7 hPa 0,0 l/m 0 min 0 min 9 W/m 6,3 km/h (2 Bft) 91,49 %
10.04.2016 07:24 8,1 C 7,8 C 6,7 C 84 % 4 lf 1009,8 hPa 0,0 l/m 0 min 2 min 9 W/m 10,5 km/h (2 Bft) 95,65 %
10.04.2016 07:26 8,1 C 7,8 C 6,7 C 84 % 3 lf 1009,9 hPa 0,0 l/m 0 min 0 min 11 W/m 8,4 km/h (2 Bft) 95,74 %
10.04.2016 07:28 8,1 C 7,8 C 6,7 C 84 % 2 lf 1009,9 hPa 0,0 l/m 0 min 0 min 11 W/m 10,5 km/h (2 Bft) 95,74 %
10.04.2016 07:30 8,1 C 7,8 C 6,7 C 85 % 1 lf 1009,9 hPa 0,0 l/m 0 min 0 min 11 W/m 4,2 km/h (1 Bft) 97,87 %
10.04.2016 07:32 8,1 C 7,8 C 6,7 C 85 % 0 lf 1010,0 hPa 0,0 l/m 0 min 0 min 11 W/m 6,3 km/h (2 Bft) 97,87 %
10.04.2016 07:34 8,1 C 7,8 C 6,7 C 85 % 0 lf 1010,0 hPa 0,0 l/m 0 min 0 min 12 W/m 6,3 km/h (2 Bft) 91,49 %
10.04.2016 07:36 8,1 C 7,8 C 6,7 C 85 % 0 lf 1010,0 hPa 0,0 l/m 0 min 0 min 13 W/m 6,3 km/h (2 Bft) 100,00 %
10.04.2016 07:38 8,1 C 7,8 C 6,7 C 85 % 0 lf 1010,0 hPa 0,0 l/m 0 min 0 min 16 W/m 6,3 km/h (2 Bft) 100,00 %
10.04.2016 07:40 8,1 C 7,8 C 6,7 C 86 % 0 lf 1010,1 hPa 0,0 l/m 0 min 0 min 17 W/m 6,3 km/h (2 Bft) 100,00 %
10.04.2016 07:42 8,1 C 7,8 C 6,7 C 86 % 0 lf 1010,1 hPa 0,0 l/m 0 min 0 min 18 W/m 8,4 km/h (2 Bft) 97,87 %
10.04.2016 07:44 8,1 C 7,8 C 6,7 C 86 % 0 lf 1010,1 hPa 0,0 l/m 0 min 0 min 19 W/m 6,3 km/h (2 Bft) 100,00 %
10.04.2016 07:46 8,1 C 7,8 C 6,7 C 86 % 0 lf 1010,2 hPa 0,0 l/m 0 min 0 min 18 W/m 10,5 km/h (2 Bft) 100,00 %
10.04.2016 07:48 8,1 C 7,8 C 6,7 C 86 % 0 lf 1010,2 hPa 0,0 l/m 0 min 0 min 16 W/m 8,4 km/h (2 Bft) 95,65 %
10.04.2016 07:50 8,1 C 7,8 C 6,7 C 86 % 0 lf 1010,3 hPa 0,0 l/m 0 min 0 min 18 W/m 6,3 km/h (2 Bft) 93,62 %
10.04.2016 07:52 8,1 C 7,8 C 6,7 C 86 % 0 lf 1010,3 hPa 0,0 l/m 0 min 0 min 17 W/m 6,3 km/h (2 Bft) 93,62 %
10.04.2016 07:54 8,1 C 7,8 C 6,7 C 86 % 0 lf 1010,3 hPa 0,0 l/m 0 min 0 min 16 W/m 6,3 km/h (2 Bft) 95,74 %
10.04.2016 07:56 8,1 C 7,8 C 6,7 C 86 % 0 lf 1010,3 hPa 0,0 l/m 0 min 0 min 17 W/m 6,3 km/h (2 Bft) 97,87 %
10.04.2016 07:58 8,1 C 7,8 C 6,7 C 87 % 0 lf 1010,3 hPa 0,0 l/m 0 min 0 min 18 W/m 6,3 km/h (2 Bft) 95,74 %
10.04.2016 08:00 8,1 C 7,8 C 6,7 C 87 % 0 lf 1010,3 hPa 0,0 l/m 0 min 0 min 22 W/m 4,2 km/h (1 Bft) 97,83 %
10.04.2016 08:02 8,1 C 8,3 C 6,7 C 87 % 0 lf 1010,3 hPa 0,0 l/m 0 min 0 min 26 W/m 6,3 km/h (2 Bft) 93,62 %
10.04.2016 08:04 8,1 C 8,3 C 6,7 C 87 % 0 lf 1010,4 hPa 0,0 l/m 0 min 0 min 27 W/m 4,2 km/h (1 Bft) 97,87 %
10.04.2016 08:06 8,1 C 8,3 C 6,7 C 87 % 0 lf 1010,4 hPa 0,0 l/m 0 min 0 min 30 W/m 6,3 km/h (2 Bft) 95,74 %
10.04.2016 08:08 8,0 C 8,3 C 7,2 C 87 % 0 lf 1010,4 hPa 0,0 l/m 0 min 0 min 37 W/m 6,3 km/h (2 Bft) 93,62 %
10.04.2016 08:10 8,0 C 8,3 C 7,2 C 87 % 0 lf 1010,4 hPa 0,0 l/m 0 min 0 min 41 W/m 6,3 km/h (2 Bft) 95,65 %
10.04.2016 08:12 8,0 C 8,3 C 7,2 C 87 % 0 lf 1010,4 hPa 0,0 l/m 0 min 0 min 44 W/m 6,3 km/h (2 Bft) 93,62 %
10.04.2016 08:14 8,1 C 8,3 C 7,2 C 87 % 0 lf 1010,4 hPa 0,0 l/m 0 min 0 min 46 W/m 8,4 km/h (2 Bft) 93,62 %
10.04.2016 08:16 8,1 C 8,3 C 7,2 C 87 % 0 lf 1010,4 hPa 0,0 l/m 0 min 0 min 52 W/m 4,2 km/h (1 Bft) 93,62 %
10.04.2016 08:18 8,1 C 8,3 C 7,2 C 87 % 0 lf 1010,4 hPa 0,0 l/m 0 min 0 min 58 W/m 8,4 km/h (2 Bft) 93,62 %
10.04.2016 08:20 8,1 C 8,9 C 7,2 C 88 % 0 lf 1010,4 hPa 0,0 l/m 0 min 0 min 64 W/m 6,3 km/h (2 Bft) 95,74 %
10.04.2016 08:22 8,1 C 8,9 C 7,2 C 88 % 0 lf 1010,4 hPa 0,0 l/m 0 min 0 min 67 W/m 4,2 km/h (1 Bft) 93,48 %
10.04.2016 08:24 8,1 C 8,9 C 7,2 C 88 % 0 lf 1010,4 hPa 0,0 l/m 0 min 0 min 63 W/m 6,3 km/h (2 Bft) 95,74 %
10.04.2016 08:26 8,1 C 8,9 C 7,2 C 88 % 0 lf 1010,4 hPa 0,0 l/m 0 min 0 min 63 W/m 8,4 km/h (2 Bft) 91,49 %
10.04.2016 08:28 8,1 C 8,9 C 7,2 C 88 % 0 lf 1010,5 hPa 0,0 l/m 0 min 0 min 67 W/m 6,3 km/h (2 Bft) 95,74 %
10.04.2016 08:30 8,1 C 8,9 C 7,2 C 88 % 0 lf 1010,5 hPa 0,0 l/m 0 min 0 min 70 W/m 10,5 km/h (2 Bft) 95,74 %
10.04.2016 08:32 8,2 C 8,9 C 7,2 C 88 % 0 lf 1010,5 hPa 0,0 l/m 0 min 0 min 76 W/m 8,4 km/h (2 Bft) 95,74 %
10.04.2016 08:34 8,2 C 8,9 C 7,2 C 89 % 0 lf 1010,5 hPa 0,0 l/m 0 min 0 min 81 W/m 8,4 km/h (2 Bft) 89,13 %
10.04.2016 08:36 8,2 C 8,9 C 7,8 C 89 % 0 lf 1010,5 hPa 0,0 l/m 0 min 0 min 86 W/m 8,4 km/h (2 Bft) 95,74 %
10.04.2016 08:38 8,2 C 9,4 C 7,8 C 89 % 0 lf 1010,5 hPa 0,0 l/m 0 min 0 min 87 W/m 8,4 km/h (2 Bft) 95,74 %
10.04.2016 08:40 8,2 C 9,4 C 7,2 C 89 % 0 lf 1010,5 hPa 0,0 l/m 0 min 0 min 81 W/m 8,4 km/h (2 Bft) 95,74 %
10.04.2016 08:42 8,2 C 9,4 C 7,8 C 89 % 0 lf 1010,6 hPa 0,0 l/m 0 min 0 min 74 W/m 8,4 km/h (2 Bft) 95,74 %
10.04.2016 08:44 8,2 C 9,4 C 7,8 C 89 % 0 lf 1010,6 hPa 0,0 l/m 0 min 0 min 75 W/m 8,4 km/h (2 Bft) 93,62 %
10.04.2016 08:46 8,2 C 9,4 C 7,8 C 89 % 0 lf 1010,6 hPa 0,0 l/m 0 min 0 min 78 W/m 8,4 km/h (2 Bft) 95,65 %
10.04.2016 08:48 8,2 C 9,4 C 7,8 C 89 % 0 lf 1010,6 hPa 0,0 l/m 0 min 0 min 81 W/m 8,4 km/h (2 Bft) 93,62 %
10.04.2016 08:50 8,2 C 9,4 C 7,2 C 89 % 0 lf 1010,6 hPa 0,0 l/m 0 min 0 min 82 W/m 8,4 km/h (2 Bft) 97,87 %
10.04.2016 08:52 8,2 C 9,4 C 7,2 C 89 % 0 lf 1010,7 hPa 0,0 l/m 0 min 0 min 83 W/m 8,4 km/h (2 Bft) 95,74 %
10.04.2016 08:54 8,3 C 9,4 C 7,2 C 89 % 0 lf 1010,7 hPa 0,0 l/m 0 min 0 min 78 W/m 6,3 km/h (2 Bft) 93,62 %
10.04.2016 08:56 8,3 C 9,4 C 7,8 C 89 % 0 lf 1010,6 hPa 0,0 l/m 0 min 0 min 73 W/m 4,2 km/h (1 Bft) 95,74 %
10.04.2016 08:58 8,3 C 9,4 C 7,8 C 89 % 0 lf 1010,6 hPa 0,0 l/m 0 min 0 min 69 W/m 8,4 km/h (2 Bft) 93,48 %
10.04.2016 09:00 8,3 C 8,9 C 7,2 C 89 % 0 lf 1010,6 hPa 0,0 l/m 0 min 0 min 63 W/m 6,3 km/h (2 Bft) 93,62 %
10.04.2016 09:02 8,3 C 8,9 C 7,8 C 90 % 0 lf 1010,7 hPa 0,0 l/m 0 min 0 min 58 W/m 8,4 km/h (2 Bft) 93,62 %
10.04.2016 09:04 8,3 C 8,9 C 7,2 C 90 % 0 lf 1010,6 hPa 0,0 l/m 0 min 0 min 59 W/m 8,4 km/h (2 Bft) 91,49 %
10.04.2016 09:06 8,3 C 8,9 C 7,2 C 90 % 3 lf 1010,7 hPa 0,0 l/m 0 min 0 min 63 W/m 8,4 km/h (2 Bft) 93,62 %
10.04.2016 09:08 8,3 C 8,9 C 7,2 C 90 % 14 lf 1010,7 hPa 0,0 l/m 0 min 2 min 75 W/m 6,3 km/h (2 Bft) 93,48 %
10.04.2016 09:10 8,3 C 8,9 C 7,2 C 90 % 15 lf 1010,7 hPa 0,0 l/m 0 min 2 min 87 W/m 6,3 km/h (2 Bft) 93,62 %
10.04.2016 09:12 8,3 C 9,4 C 7,2 C 90 % 15 lf 1010,7 hPa 0,0 l/m 0 min 2 min 96 W/m 6,3 km/h (2 Bft) 91,49 %
10.04.2016 09:14 8,3 C 9,4 C 7,2 C 90 % 15 lf 1010,7 hPa 0,0 l/m 0 min 2 min 107 W/m 8,4 km/h (2 Bft) 93,62 %
10.04.2016 09:16 8,3 C 9,4 C 7,2 C 90 % 15 lf 1010,7 hPa 0,0 l/m 0 min 0 min 115 W/m 8,4 km/h (2 Bft) 89,36 %
10.04.2016 09:18 8,3 C 9,4 C 7,2 C 90 % 15 lf 1010,7 hPa 0,0 l/m 0 min 0 min 126 W/m 6,3 km/h (2 Bft) 95,74 %
10.04.2016 09:20 8,3 C 9,4 C 7,2 C 90 % 15 lf 1010,7 hPa 0,0 l/m 0 min 0 min 137 W/m 6,3 km/h (2 Bft) 95,65 %
10.04.2016 09:22 8,3 C 10,0 C 7,8 C 90 % 15 lf 1010,7 hPa 0,0 l/m 0 min 0 min 145 W/m 6,3 km/h (2 Bft) 91,49 %
10.04.2016 09:24 8,4 C 10,0 C 7,8 C 90 % 15 lf 1010,7 hPa 0,0 l/m 0 min 0 min 158 W/m 8,4 km/h (2 Bft) 93,62 %
10.04.2016 09:26 8,4 C 10,6 C 7,8 C 90 % 15 lf 1010,7 hPa 0,0 l/m 0 min 0 min 168 W/m 8,4 km/h (2 Bft) 95,74 %
10.04.2016 09:28 8,4 C 10,6 C 7,8 C 90 % 14 lf 1010,7 hPa 0,0 l/m 0 min 0 min 177 W/m 8,4 km/h (2 Bft) 95,74 %
10.04.2016 09:30 8,4 C 10,6 C 7,8 C 90 % 12 lf 1010,8 hPa 0,0 l/m 0 min 0 min 182 W/m 6,3 km/h (2 Bft) 93,62 %
10.04.2016 09:32 8,4 C 11,1 C 8,3 C 90 % 10 lf 1010,8 hPa 0,0 l/m 0 min 0 min 186 W/m 4,2 km/h (1 Bft) 93,62 %
10.04.2016 09:34 8,5 C 11,1 C 8,3 C 90 % 3 lf 1010,8 hPa 0,0 l/m 0 min 0 min 187 W/m 4,2 km/h (1 Bft) 97,83 %
10.04.2016 09:36 8,5 C 11,1 C 8,3 C 90 % 0 lf 1010,8 hPa 0,0 l/m 0 min 0 min 185 W/m 6,3 km/h (2 Bft) 97,87 %
10.04.2016 09:38 8,6 C 11,1 C 8,9 C 90 % 0 lf 1010,8 hPa 0,0 l/m 0 min 0 min 177 W/m 6,3 km/h (2 Bft) 97,87 %
10.04.2016 09:40 8,6 C 11,1 C 8,3 C 90 % 0 lf 1010,9 hPa 0,0 l/m 0 min 0 min 174 W/m 4,2 km/h (1 Bft) 97,87 %
10.04.2016 09:42 8,6 C 11,1 C 8,3 C 90 % 0 lf 1010,9 hPa 0,0 l/m 0 min 0 min 170 W/m 6,3 km/h (2 Bft) 97,87 %
10.04.2016 09:44 8,6 C 11,1 C 8,3 C 90 % 0 lf 1010,9 hPa 0,0 l/m 0 min 0 min 167 W/m 6,3 km/h (2 Bft) 100,00 %
10.04.2016 09:46 8,7 C 11,1 C 8,3 C 90 % 0 lf 1010,9 hPa 0,0 l/m 0 min 0 min 177 W/m 8,4 km/h (2 Bft) 97,87 %
10.04.2016 09:48 8,7 C 11,1 C 8,9 C 90 % 0 lf 1011,0 hPa 0,0 l/m 0 min 0 min 180 W/m 6,3 km/h (2 Bft) 97,87 %
10.04.2016 09:50 8,7 C 11,1 C 8,9 C 90 % 0 lf 1011,0 hPa 0,0 l/m 0 min 0 min 184 W/m 8,4 km/h (2 Bft) 100,00 %
10.04.2016 09:52 8,7 C 11,1 C 8,9 C 90 % 0 lf 1011,0 hPa 0,0 l/m 0 min 0 min 192 W/m 6,3 km/h (2 Bft) 100,00 %
10.04.2016 09:54 8,7 C 11,7 C 8,9 C 90 % 0 lf 1011,0 hPa 0,0 l/m 0 min 0 min 203 W/m 4,2 km/h (1 Bft) 100,00 %
10.04.2016 09:56 8,8 C 11,7 C 8,9 C 90 % 0 lf 1011,0 hPa 0,0 l/m 0 min 0 min 214 W/m 6,3 km/h (2 Bft) 100,00 %
10.04.2016 09:58 8,8 C 12,2 C 8,9 C 90 % 0 lf 1011,0 hPa 0,0 l/m 0 min 0 min 226 W/m 8,4 km/h (2 Bft) 97,87 %
10.04.2016 10:00 8,8 C 12,2 C 9,4 C 90 % 0 lf 1011,0 hPa 0,0 l/m 2 min 0 min 242 W/m 6,3 km/h (2 Bft) 95,74 %
10.04.2016 10:02 8,8 C 12,2 C 9,4 C 89 % 0 lf 1011,0 hPa 0,0 l/m 2 min 0 min 249 W/m 8,4 km/h (2 Bft) 100,00 %
10.04.2016 10:04 8,9 C 12,8 C 9,4 C 89 % 0 lf 1011,0 hPa 0,0 l/m 2 min 0 min 247 W/m 6,3 km/h (2 Bft) 97,87 %
10.04.2016 10:06 8,9 C 13,3 C 9,4 C 89 % 0 lf 1011,1 hPa 0,0 l/m 0 min 0 min 228 W/m 4,2 km/h (1 Bft) 100,00 %
10.04.2016 10:08 9,0 C 13,9 C 10,0 C 89 % 0 lf 1011,1 hPa 0,0 l/m 2 min 0 min 246 W/m 0,0 km/h (0 Bft) 97,83 %
10.04.2016 10:10 9,1 C 14,4 C 10,6 C 89 % 0 lf 1011,1 hPa 0,0 l/m 2 min 0 min 311 W/m 6,3 km/h (2 Bft) 100,00 %
10.04.2016 10:12 9,2 C 15,6 C 10,6 C 89 % 0 lf 1011,1 hPa 0,0 l/m 2 min 0 min 278 W/m 6,3 km/h (2 Bft) 100,00 %
10.04.2016 10:14 9,2 C 15,6 C 10,6 C 89 % 0 lf 1011,1 hPa 0,0 l/m 2 min 0 min 263 W/m 10,5 km/h (2 Bft) 100,00 %
10.04.2016 10:16 9,3 C 15,0 C 10,6 C 89 % 0 lf 1011,2 hPa 0,0 l/m 0 min 0 min 183 W/m 8,4 km/h (2 Bft) 100,00 %
10.04.2016 10:18 9,4 C 13,9 C 10,0 C 89 % 0 lf 1011,2 hPa 0,0 l/m 0 min 0 min 188 W/m 8,4 km/h (2 Bft) 97,83 %
10.04.2016 10:20 9,4 C 13,3 C 10,0 C 88 % 0 lf 1011,2 hPa 0,0 l/m 0 min 0 min 202 W/m 12,6 km/h (3 Bft) 100,00 %
10.04.2016 10:22 9,5 C 12,8 C 10,0 C 88 % 0 lf 1011,2 hPa 0,0 l/m 0 min 0 min 208 W/m 10,5 km/h (2 Bft) 100,00 %
10.04.2016 10:24 9,6 C 12,8 C 10,0 C 88 % 0 lf 1011,2 hPa 0,0 l/m 0 min 0 min 214 W/m 12,6 km/h (3 Bft) 100,00 %
10.04.2016 10:26 9,6 C 12,8 C 10,0 C 88 % 0 lf 1011,2 hPa 0,0 l/m 0 min 0 min 207 W/m 14,6 km/h (3 Bft) 97,87 %
10.04.2016 10:28 9,7 C 12,2 C 9,4 C 87 % 0 lf 1011,2 hPa 0,0 l/m 0 min 0 min 216 W/m 10,5 km/h (2 Bft) 100,00 %
10.04.2016 10:30 9,7 C 12,8 C 9,4 C 87 % 0 lf 1011,2 hPa 0,0 l/m 0 min 0 min 246 W/m 10,5 km/h (2 Bft) 100,00 %
10.04.2016 10:32 9,7 C 12,8 C 10,0 C 87 % 0 lf 1011,3 hPa 0,0 l/m 2 min 0 min 273 W/m 10,5 km/h (2 Bft) 100,00 %
10.04.2016 10:34 9,7 C 12,8 C 10,0 C 87 % 0 lf 1011,3 hPa 0,0 l/m 2 min 0 min 281 W/m 12,6 km/h (3 Bft) 100,00 %
10.04.2016 10:36 9,7 C 13,9 C 10,0 C 86 % 0 lf 1011,3 hPa 0,0 l/m 2 min 0 min 287 W/m 14,6 km/h (3 Bft) 100,00 %
10.04.2016 10:38 9,8 C 14,4 C 10,6 C 86 % 0 lf 1011,3 hPa 0,0 l/m 2 min 0 min 359 W/m 12,6 km/h (3 Bft) 100,00 %
10.04.2016 10:40 9,8 C 14,4 C 10,6 C 86 % 0 lf 1011,3 hPa 0,0 l/m 2 min 0 min 368 W/m 14,6 km/h (3 Bft) 97,87 %
10.04.2016 10:42 9,8 C 15,6 C 11,1 C 86 % 0 lf 1011,3 hPa 0,0 l/m 2 min 0 min 424 W/m 10,5 km/h (2 Bft) 93,48 %
10.04.2016 10:44 9,8 C 16,7 C 11,7 C 86 % 0 lf 1011,3 hPa 0,0 l/m 2 min 0 min 540 W/m 10,5 km/h (2 Bft) 95,74 %
10.04.2016 10:46 9,9 C 18,3 C 12,8 C 86 % 0 lf 1011,4 hPa 0,0 l/m 2 min 0 min 552 W/m 12,6 km/h (3 Bft) 93,62 %
10.04.2016 10:48 9,9 C 18,9 C 12,8 C 85 % 0 lf 1011,4 hPa 0,0 l/m 2 min 0 min 543 W/m 12,6 km/h (3 Bft) 97,87 %
10.04.2016 10:50 10,0 C 19,4 C 13,3 C 85 % 0 lf 1011,4 hPa 0,0 l/m 2 min 0 min 553 W/m 12,6 km/h (3 Bft) 95,74 %
10.04.2016 10:52 10,1 C 20,0 C 13,3 C 85 % 0 lf 1011,4 hPa 0,0 l/m 2 min 0 min 584 W/m 12,6 km/h (3 Bft) 93,62 %
10.04.2016 10:54 10,1 C 20,0 C 12,8 C 85 % 0 lf 1011,4 hPa 0,0 l/m 2 min 0 min 579 W/m 12,6 km/h (3 Bft) 91,30 %
10.04.2016 10:56 10,2 C 20,0 C 12,8 C 84 % 0 lf 1011,4 hPa 0,0 l/m 2 min 0 min 513 W/m 8,4 km/h (2 Bft) 95,74 %
10.04.2016 10:58 10,2 C 21,1 C 13,3 C 84 % 0 lf 1011,4 hPa 0,0 l/m 2 min 0 min 503 W/m 6,3 km/h (2 Bft) 97,87 %
10.04.2016 11:00 10,3 C 21,1 C 13,3 C 84 % 0 lf 1011,4 hPa 0,0 l/m 2 min 0 min 517 W/m 10,5 km/h (2 Bft) 97,87 %
10.04.2016 11:02 10,3 C 21,1 C 13,3 C 84 % 0 lf 1011,4 hPa 0,0 l/m 2 min 0 min 526 W/m 10,5 km/h (2 Bft) 97,87 %
10.04.2016 11:04 10,4 C 21,7 C 13,3 C 84 % 0 lf 1011,4 hPa 0,0 l/m 2 min 0 min 513 W/m 12,6 km/h (3 Bft) 93,62 %
10.04.2016 11:06 10,6 C 22,2 C 13,3 C 84 % 0 lf 1011,5 hPa 0,0 l/m 2 min 0 min 528 W/m 10,5 km/h (2 Bft) 95,65 %
10.04.2016 11:08 10,7 C 22,2 C 12,8 C 84 % 0 lf 1011,5 hPa 0,0 l/m 2 min 0 min 495 W/m 10,5 km/h (2 Bft) 93,62 %
10.04.2016 11:10 10,7 C 21,1 C 12,2 C 83 % 0 lf 1011,5 hPa 0,0 l/m 2 min 0 min 456 W/m 14,6 km/h (3 Bft) 91,49 %
10.04.2016 11:12 10,8 C 21,1 C 12,8 C 82 % 0 lf 1011,5 hPa 0,0 l/m 2 min 0 min 502 W/m 8,4 km/h (2 Bft) 95,74 %
10.04.2016 11:14 10,8 C 21,1 C 12,8 C 82 % 0 lf 1011,5 hPa 0,0 l/m 2 min 0 min 566 W/m 10,5 km/h (2 Bft) 95,74 %
10.04.2016 11:16 10,9 C 21,1 C 13,9 C 82 % 0 lf 1011,6 hPa 0,0 l/m 2 min 0 min 556 W/m 10,5 km/h (2 Bft) 95,74 %
10.04.2016 11:18 11,0 C 22,2 C 15,6 C 82 % 0 lf 1011,5 hPa 0,0 l/m 2 min 0 min 552 W/m 8,4 km/h (2 Bft) 95,65 %
10.04.2016 11:20 11,2 C 22,8 C 16,7 C 82 % 0 lf 1011,5 hPa 0,0 l/m 2 min 0 min 651 W/m 6,3 km/h (2 Bft) 95,74 %
10.04.2016 11:22 11,3 C 23,9 C 17,2 C 82 % 0 lf 1011,5 hPa 0,0 l/m 2 min 0 min 665 W/m 8,4 km/h (2 Bft) 95,74 %
10.04.2016 11:24 11,4 C 23,3 C 15,6 C 82 % 0 lf 1011,5 hPa 0,0 l/m 2 min 0 min 666 W/m 8,4 km/h (2 Bft) 95,74 %
10.04.2016 11:26 11,5 C 23,3 C 15,6 C 81 % 0 lf 1011,5 hPa 0,0 l/m 2 min 0 min 598 W/m 8,4 km/h (2 Bft) 95,74 %
10.04.2016 11:28 11,6 C 23,3 C 16,1 C 81 % 0 lf 1011,5 hPa 0,0 l/m 2 min 0 min 582 W/m 6,3 km/h (2 Bft) 95,74 %
10.04.2016 11:30 11,7 C 23,3 C 16,1 C 80 % 0 lf 1011,5 hPa 0,0 l/m 2 min 0 min 633 W/m 10,5 km/h (2 Bft) 95,65 %
10.04.2016 11:32 11,8 C 23,3 C 15,6 C 80 % 0 lf 1011,5 hPa 0,0 l/m 2 min 0 min 680 W/m 8,4 km/h (2 Bft) 95,74 %
10.04.2016 11:34 11,8 C 22,8 C 15,0 C 79 % 0 lf 1011,5 hPa 0,0 l/m 2 min 0 min 626 W/m 12,6 km/h (3 Bft) 97,87 %
10.04.2016 11:36 11,8 C 22,8 C 15,6 C 79 % 0 lf 1011,6 hPa 0,0 l/m 2 min 0 min 582 W/m 8,4 km/h (2 Bft) 91,49 %
10.04.2016 11:38 11,9 C 22,2 C 15,0 C 79 % 0 lf 1011,6 hPa 0,0 l/m 2 min 0 min 628 W/m 10,5 km/h (2 Bft) 93,62 %
10.04.2016 11:40 11,9 C 23,9 C 15,6 C 78 % 0 lf 1011,5 hPa 0,0 l/m 2 min 0 min 684 W/m 6,3 km/h (2 Bft) 95,65 %
10.04.2016 11:42 12,1 C 23,9 C 17,2 C 79 % 0 lf 1011,5 hPa 0,0 l/m 2 min 0 min 688 W/m 4,2 km/h (1 Bft) 93,62 %
10.04.2016 11:44 12,2 C 23,9 C 18,9 C 79 % 0 lf 1011,5 hPa 0,0 l/m 2 min 0 min 614 W/m 4,2 km/h (1 Bft) 95,74 %
10.04.2016 11:46 12,3 C 25,0 C 18,9 C 79 % 0 lf 1011,5 hPa 0,0 l/m 2 min 0 min 536 W/m 10,5 km/h (2 Bft) 95,74 %
10.04.2016 11:48 12,4 C 23,3 C 17,8 C 78 % 0 lf 1011,5 hPa 0,0 l/m 2 min 0 min 406 W/m 8,4 km/h (2 Bft) 91,49 %
10.04.2016 11:50 12,6 C 22,2 C 15,6 C 78 % 0 lf 1011,5 hPa 0,0 l/m 0 min 0 min 237 W/m 8,4 km/h (2 Bft) 85,11 %
10.04.2016 11:52 12,6 C 21,7 C 15,0 C 77 % 0 lf 1011,6 hPa 0,0 l/m 0 min 0 min 271 W/m 10,5 km/h (2 Bft) 95,65 %
10.04.2016 11:54 12,6 C 22,2 C 15,6 C 76 % 0 lf 1011,5 hPa 0,0 l/m 2 min 0 min 512 W/m 8,4 km/h (2 Bft) 95,74 %
10.04.2016 11:56 12,6 C 21,7 C 14,4 C 76 % 0 lf 1011,6 hPa 0,0 l/m 2 min 0 min 501 W/m 8,4 km/h (2 Bft) 93,62 %
10.04.2016 11:58 12,7 C 22,8 C 15,6 C 75 % 0 lf 1011,5 hPa 0,0 l/m 2 min 0 min 371 W/m 8,4 km/h (2 Bft) 95,74 %
10.04.2016 12:00 12,7 C 23,9 C 16,7 C 75 % 0 lf 1011,5 hPa 0,0 l/m 2 min 0 min 703 W/m 10,5 km/h (2 Bft) 95,74 %
10.04.2016 12:02 12,8 C 24,4 C 17,8 C 77 % 0 lf 1011,5 hPa 0,0 l/m 2 min 0 min 790 W/m 12,6 km/h (3 Bft) 95,74 %
10.04.2016 12:04 12,8 C 25,0 C 17,8 C 76 % 0 lf 1011,5 hPa 0,0 l/m 2 min 0 min 724 W/m 10,5 km/h (2 Bft) 95,65 %
10.04.2016 12:06 12,9 C 26,1 C 17,8 C 75 % 0 lf 1011,5 hPa 0,0 l/m 2 min 0 min 557 W/m 10,5 km/h (2 Bft) 89,36 %
10.04.2016 12:08 13,1 C 25,6 C 18,9 C 76 % 0 lf 1011,5 hPa 0,0 l/m 0 min 0 min 246 W/m 14,6 km/h (3 Bft) 95,74 %
10.04.2016 12:10 13,1 C 25,0 C 17,8 C 75 % 0 lf 1011,5 hPa 0,0 l/m 2 min 0 min 560 W/m 12,6 km/h (3 Bft) 91,49 %
10.04.2016 12:12 13,2 C 24,4 C 16,7 C 74 % 0 lf 1011,5 hPa 0,0 l/m 2 min 0 min 757 W/m 10,5 km/h (2 Bft) 95,74 %
10.04.2016 12:14 13,2 C 25,0 C 18,3 C 74 % 0 lf 1011,5 hPa 0,0 l/m 2 min 0 min 750 W/m 8,4 km/h (2 Bft) 95,74 %
10.04.2016 12:16 13,3 C 21,7 C 18,3 C 73 % 0 lf 1011,5 hPa 0,0 l/m 2 min 0 min 704 W/m 14,6 km/h (3 Bft) 91,30 %
10.04.2016 12:18 13,3 C 20,0 C 17,8 C 72 % 0 lf 1011,4 hPa 0,0 l/m 2 min 0 min 715 W/m 14,6 km/h (3 Bft) 93,62 %
10.04.2016 12:20 13,4 C 23,3 C 18,9 C 73 % 0 lf 1011,4 hPa 0,0 l/m 2 min 0 min 772 W/m 14,6 km/h (3 Bft) 95,74 %
10.04.2016 12:22 13,5 C 22,8 C 16,7 C 72 % 0 lf 1011,5 hPa 0,0 l/m 2 min 0 min 714 W/m 14,6 km/h (3 Bft) 95,74 %
10.04.2016 12:24 13,5 C 22,8 C 16,1 C 71 % 0 lf 1011,5 hPa 0,0 l/m 2 min 0 min 714 W/m 8,4 km/h (2 Bft) 97,87 %
10.04.2016 12:26 13,6 C 20,0 C 16,1 C 71 % 0 lf 1011,4 hPa 0,0 l/m 2 min 0 min 674 W/m 4,2 km/h (1 Bft) 93,62 %
10.04.2016 12:28 13,6 C 18,9 C 15,6 C 71 % 0 lf 1011,4 hPa 0,0 l/m 0 min 0 min 246 W/m 4,2 km/h (1 Bft) 95,65 %
10.04.2016 12:30 13,6 C 20,0 C 15,0 C 71 % 0 lf 1011,4 hPa 0,0 l/m 0 min 0 min 271 W/m 6,3 km/h (2 Bft) 97,87 %
10.04.2016 12:32 13,6 C 22,2 C 15,6 C 71 % 0 lf 1011,4 hPa 0,0 l/m 2 min 0 min 523 W/m 12,6 km/h (3 Bft) 95,74 %
10.04.2016 12:34 13,6 C 23,3 C 15,0 C 71 % 0 lf 1011,3 hPa 0,0 l/m 2 min 0 min 773 W/m 8,4 km/h (2 Bft) 97,87 %
10.04.2016 12:36 13,6 C 23,9 C 16,1 C 71 % 0 lf 1011,3 hPa 0,0 l/m 2 min 0 min 775 W/m 14,6 km/h (3 Bft) 93,62 %
10.04.2016 12:38 13,6 C 23,9 C 17,2 C 71 % 0 lf 1011,3 hPa 0,0 l/m 2 min 0 min 733 W/m 12,6 km/h (3 Bft) 97,87 %
10.04.2016 12:40 13,6 C 23,3 C 18,3 C 71 % 0 lf 1011,3 hPa 0,0 l/m 2 min 0 min 735 W/m 10,5 km/h (2 Bft) 91,30 %
10.04.2016 12:42 13,7 C 22,8 C 18,9 C 70 % 0 lf 1011,3 hPa 0,0 l/m 2 min 0 min 755 W/m 10,5 km/h (2 Bft) 93,62 %
10.04.2016 12:44 13,7 C 24,4 C 18,3 C 71 % 0 lf 1011,3 hPa 0,0 l/m 2 min 0 min 759 W/m 10,5 km/h (2 Bft) 100,00 %
10.04.2016 12:46 13,9 C 25,0 C 18,9 C 72 % 0 lf 1011,3 hPa 0,0 l/m 2 min 0 min 775 W/m 10,5 km/h (2 Bft) 100,00 %
10.04.2016 12:48 14,0 C 25,6 C 18,3 C 71 % 0 lf 1011,3 hPa 0,0 l/m 2 min 0 min 790 W/m 12,6 km/h (3 Bft) 100,00 %
10.04.2016 12:50 14,1 C 25,0 C 17,2 C 70 % 0 lf 1011,3 hPa 0,0 l/m 2 min 0 min 787 W/m 12,6 km/h (3 Bft) 97,83 %
10.04.2016 12:52 14,1 C 25,0 C 17,2 C 69 % 0 lf 1011,3 hPa 0,0 l/m 2 min 0 min 809 W/m 12,6 km/h (3 Bft) 95,74 %
10.04.2016 12:54 14,2 C 26,1 C 18,3 C 70 % 0 lf 1011,2 hPa 0,0 l/m 2 min 0 min 804 W/m 10,5 km/h (2 Bft) 97,87 %
10.04.2016 12:56 14,2 C 26,1 C 17,2 C 71 % 0 lf 1011,2 hPa 0,0 l/m 2 min 0 min 750 W/m 10,5 km/h (2 Bft) 97,87 %
10.04.2016 12:58 14,2 C 26,7 C 17,2 C 70 % 0 lf 1011,2 hPa 0,0 l/m 2 min 0 min 758 W/m 10,5 km/h (2 Bft) 95,74 %
10.04.2016 13:00 14,2 C 24,4 C 16,7 C 70 % 0 lf 1011,1 hPa 0,0 l/m 2 min 0 min 754 W/m 10,5 km/h (2 Bft) 97,87 %
10.04.2016 13:02 14,4 C 24,4 C 16,7 C 71 % 0 lf 1011,1 hPa 0,0 l/m 2 min 0 min 760 W/m 16,7 km/h (3 Bft) 97,83 %
10.04.2016 13:04 14,4 C 25,0 C 16,1 C 70 % 0 lf 1011,1 hPa 0,0 l/m 2 min 0 min 821 W/m 14,6 km/h (3 Bft) 100,00 %
10.04.2016 13:06 14,5 C 23,9 C 15,6 C 69 % 0 lf 1011,1 hPa 0,0 l/m 2 min 0 min 831 W/m 18,8 km/h (3 Bft) 100,00 %
10.04.2016 13:08 14,5 C 23,9 C 15,6 C 69 % 0 lf 1011,1 hPa 0,0 l/m 2 min 0 min 788 W/m 14,6 km/h (3 Bft) 97,87 %
10.04.2016 13:10 14,5 C 23,3 C 15,6 C 68 % 0 lf 1011,1 hPa 0,0 l/m 2 min 0 min 763 W/m 23,0 km/h (4 Bft) 100,00 %
10.04.2016 13:12 14,5 C 23,3 C 15,0 C 67 % 0 lf 1011,1 hPa 0,0 l/m 2 min 0 min 783 W/m 12,6 km/h (3 Bft) 93,62 %
10.04.2016 13:14 14,6 C 24,4 C 15,0 C 68 % 0 lf 1011,2 hPa 0,0 l/m 2 min 0 min 791 W/m 14,6 km/h (3 Bft) 91,30 %
10.04.2016 13:16 14,6 C 24,4 C 15,0 C 68 % 0 lf 1011,1 hPa 0,0 l/m 2 min 0 min 775 W/m 14,6 km/h (3 Bft) 100,00 %
10.04.2016 13:18 14,6 C 23,3 C 14,4 C 67 % 0 lf 1011,1 hPa 0,0 l/m 2 min 0 min 804 W/m 12,6 km/h (3 Bft) 100,00 %
10.04.2016 13:20 14,6 C 21,7 C 14,4 C 66 % 0 lf 1011,1 hPa 0,0 l/m 2 min 0 min 780 W/m 6,3 km/h (2 Bft) 100,00 %
10.04.2016 13:22 14,6 C 22,8 C 14,4 C 67 % 0 lf 1011,0 hPa 0,0 l/m 2 min 0 min 661 W/m 8,4 km/h (2 Bft) 100,00 %
10.04.2016 13:24 14,7 C 22,8 C 15,0 C 68 % 0 lf 1011,0 hPa 0,0 l/m 2 min 0 min 714 W/m 8,4 km/h (2 Bft) 95,74 %
10.04.2016 13:26 14,8 C 23,3 C 15,0 C 68 % 0 lf 1010,9 hPa 0,0 l/m 2 min 0 min 782 W/m 6,3 km/h (2 Bft) 95,74 %
10.04.2016 13:28 14,8 C 23,3 C 15,0 C 67 % 0 lf 1010,9 hPa 0,0 l/m 2 min 0 min 787 W/m 14,6 km/h (3 Bft) 95,65 %
10.04.2016 13:30 14,9 C 22,8 C 15,0 C 65 % 0 lf 1010,9 hPa 0,0 l/m 2 min 0 min 743 W/m 12,6 km/h (3 Bft) 97,87 %
10.04.2016 13:32 15,0 C 24,4 C 15,0 C 65 % 0 lf 1010,8 hPa 0,0 l/m 2 min 0 min 767 W/m 16,7 km/h (3 Bft) 95,74 %
10.04.2016 13:34 15,1 C 22,8 C 15,0 C 65 % 0 lf 1010,8 hPa 0,0 l/m 2 min 0 min 786 W/m 10,5 km/h (2 Bft) 95,74 %
10.04.2016 13:36 15,2 C 23,9 C 15,0 C 65 % 0 lf 1010,7 hPa 0,0 l/m 2 min 0 min 754 W/m 10,5 km/h (2 Bft) 97,87 %
10.04.2016 13:38 15,3 C 24,4 C 15,0 C 66 % 0 lf 1010,7 hPa 0,0 l/m 2 min 0 min 794 W/m 10,5 km/h (2 Bft) 97,83 %
10.04.2016 13:40 15,4 C 23,3 C 15,0 C 65 % 0 lf 1010,8 hPa 0,0 l/m 2 min 0 min 793 W/m 14,6 km/h (3 Bft) 97,87 %
10.04.2016 13:42 15,6 C 23,9 C 15,6 C 64 % 0 lf 1010,8 hPa 0,0 l/m 2 min 0 min 783 W/m 8,4 km/h (2 Bft) 97,87 %
10.04.2016 13:44 15,7 C 25,0 C 15,6 C 65 % 0 lf 1010,8 hPa 0,0 l/m 2 min 0 min 794 W/m 8,4 km/h (2 Bft) 95,74 %
10.04.2016 13:46 15,9 C 26,1 C 15,0 C 63 % 0 lf 1010,8 hPa 0,0 l/m 2 min 0 min 792 W/m 14,6 km/h (3 Bft) 95,74 %
10.04.2016 13:48 16,0 C 23,3 C 15,0 C 62 % 0 lf 1010,7 hPa 0,0 l/m 2 min 0 min 783 W/m 14,6 km/h (3 Bft) 97,87 %
10.04.2016 13:50 16,1 C 23,9 C 15,6 C 62 % 0 lf 1010,8 hPa 0,0 l/m 2 min 0 min 786 W/m 10,5 km/h (2 Bft) 97,83 %
10.04.2016 13:52 16,2 C 25,6 C 15,0 C 63 % 0 lf 1010,7 hPa 0,0 l/m 2 min 0 min 757 W/m 12,6 km/h (3 Bft) 93,62 %
10.04.2016 13:54 16,3 C 25,0 C 15,6 C 62 % 0 lf 1010,7 hPa 0,0 l/m 2 min 0 min 764 W/m 12,6 km/h (3 Bft) 95,74 %
10.04.2016 13:56 16,4 C 24,4 C 15,6 C 62 % 0 lf 1010,8 hPa 0,0 l/m 2 min 0 min 766 W/m 12,6 km/h (3 Bft) 91,49 %
10.04.2016 13:58 16,4 C 24,4 C 15,6 C 62 % 0 lf 1010,8 hPa 0,0 l/m 2 min 0 min 759 W/m 16,7 km/h (3 Bft) 95,74 %
10.04.2016 14:00 16,6 C 25,0 C 15,0 C 61 % 0 lf 1010,8 hPa 0,0 l/m 2 min 0 min 756 W/m 12,6 km/h (3 Bft) 95,74 %
10.04.2016 14:02 16,6 C 25,6 C 14,4 C 60 % 0 lf 1010,7 hPa 0,0 l/m 2 min 0 min 752 W/m 8,4 km/h (2 Bft) 95,65 %
10.04.2016 14:04 16,6 C 26,1 C 14,4 C 60 % 0 lf 1010,7 hPa 0,0 l/m 2 min 0 min 739 W/m 10,5 km/h (2 Bft) 93,62 %
10.04.2016 14:06 16,6 C 26,7 C 14,4 C 60 % 0 lf 1010,7 hPa 0,0 l/m 2 min 0 min 753 W/m 6,3 km/h (2 Bft) 95,74 %
10.04.2016 14:08 16,6 C 24,4 C 14,4 C 59 % 0 lf 1010,7 hPa 0,0 l/m 2 min 0 min 744 W/m 4,2 km/h (1 Bft) 95,74 %
10.04.2016 14:10 16,6 C 23,3 C 14,4 C 59 % 0 lf 1010,7 hPa 0,0 l/m 2 min 0 min 748 W/m 8,4 km/h (2 Bft) 95,74 %
10.04.2016 14:12 16,6 C 24,4 C 15,0 C 60 % 0 lf 1010,7 hPa 0,0 l/m 2 min 0 min 754 W/m 12,6 km/h (3 Bft) 93,48 %
10.04.2016 14:14 16,6 C 25,6 C 15,0 C 61 % 0 lf 1010,7 hPa 0,0 l/m 2 min 0 min 765 W/m 20,9 km/h (4 Bft) 95,74 %
10.04.2016 14:16 16,7 C 26,7 C 15,0 C 60 % 0 lf 1010,6 hPa 0,0 l/m 2 min 0 min 760 W/m 16,7 km/h (3 Bft) 95,74 %
10.04.2016 14:18 16,8 C 26,7 C 15,0 C 59 % 0 lf 1010,6 hPa 0,0 l/m 2 min 0 min 756 W/m 14,6 km/h (3 Bft) 91,49 %
10.04.2016 14:20 16,9 C 27,2 C 15,0 C 59 % 0 lf 1010,6 hPa 0,0 l/m 2 min 0 min 753 W/m 16,7 km/h (3 Bft) 95,74 %
10.04.2016 14:22 16,9 C 26,1 C 15,0 C 59 % 0 lf 1010,6 hPa 0,0 l/m 2 min 0 min 755 W/m 10,5 km/h (2 Bft) 91,49 %
10.04.2016 14:24 17,0 C 23,9 C 15,0 C 58 % 0 lf 1010,5 hPa 0,0 l/m 2 min 0 min 755 W/m 20,9 km/h (4 Bft) 95,65 %
10.04.2016 14:26 17,0 C 23,3 C 15,6 C 57 % 0 lf 1010,5 hPa 0,0 l/m 2 min 0 min 748 W/m 20,9 km/h (4 Bft) 95,74 %
10.04.2016 14:28 17,1 C 23,3 C 15,6 C 58 % 0 lf 1010,4 hPa 0,0 l/m 2 min 0 min 744 W/m 29,3 km/h (5 Bft) 95,74 %
10.04.2016 14:30 17,1 C 21,7 C 15,6 C 57 % 0 lf 1010,5 hPa 0,0 l/m 2 min 0 min 746 W/m 20,9 km/h (4 Bft) 93,62 %
10.04.2016 14:32 17,1 C 21,7 C 15,6 C 56 % 0 lf 1010,5 hPa 0,0 l/m 2 min 0 min 745 W/m 12,6 km/h (3 Bft) 93,62 %
10.04.2016 14:34 17,1 C 22,8 C 15,6 C 57 % 0 lf 1010,4 hPa 0,0 l/m 2 min 0 min 749 W/m 10,5 km/h (2 Bft) 95,74 %
10.04.2016 14:36 17,1 C 22,2 C 15,6 C 57 % 0 lf 1010,4 hPa 0,0 l/m 2 min 0 min 726 W/m 14,6 km/h (3 Bft) 93,62 %
10.04.2016 14:38 17,1 C 22,8 C 15,6 C 57 % 0 lf 1010,3 hPa 0,0 l/m 2 min 0 min 719 W/m 18,8 km/h (3 Bft) 93,48 %
10.04.2016 14:40 17,1 C 23,3 C 16,1 C 58 % 0 lf 1010,2 hPa 0,0 l/m 2 min 0 min 729 W/m 16,7 km/h (3 Bft) 97,87 %
10.04.2016 14:42 17,2 C 22,8 C 15,6 C 57 % 0 lf 1010,2 hPa 0,0 l/m 2 min 0 min 734 W/m 18,8 km/h (3 Bft) 97,87 %
10.04.2016 14:44 17,3 C 25,0 C 15,6 C 57 % 0 lf 1010,2 hPa 0,0 l/m 2 min 0 min 724 W/m 14,6 km/h (3 Bft) 95,74 %
10.04.2016 14:46 17,4 C 26,1 C 16,1 C 58 % 0 lf 1010,2 hPa 0,0 l/m 2 min 0 min 711 W/m 18,8 km/h (3 Bft) 95,74 %
10.04.2016 14:48 17,6 C 27,2 C 16,1 C 57 % 0 lf 1010,1 hPa 0,0 l/m 2 min 0 min 723 W/m 14,6 km/h (3 Bft) 97,83 %
10.04.2016 14:50 17,7 C 26,7 C 15,6 C 55 % 0 lf 1010,2 hPa 0,0 l/m 2 min 0 min 725 W/m 6,3 km/h (2 Bft) 100,00 %
10.04.2016 14:52 17,8 C 26,7 C 15,6 C 55 % 0 lf 1010,1 hPa 0,0 l/m 2 min 0 min 713 W/m 14,6 km/h (3 Bft) 95,74 %
10.04.2016 14:54 17,8 C 26,7 C 15,6 C 56 % 0 lf 1010,2 hPa 0,0 l/m 2 min 0 min 712 W/m 18,8 km/h (3 Bft) 97,87 %
10.04.2016 14:56 17,9 C 27,2 C 16,1 C 56 % 0 lf 1010,1 hPa 0,0 l/m 2 min 0 min 719 W/m 16,7 km/h (3 Bft) 91,49 %
10.04.2016 14:58 18,0 C 27,2 C 15,6 C 54 % 0 lf 1010,1 hPa 0,0 l/m 2 min 0 min 712 W/m 12,6 km/h (3 Bft) 97,87 %
10.04.2016 15:00 18,1 C 28,3 C 15,6 C 54 % 0 lf 1010,1 hPa 0,0 l/m 2 min 0 min 727 W/m 4,2 km/h (1 Bft) 97,83 %
10.04.2016 15:02 18,1 C 28,9 C 15,6 C 54 % 0 lf 1010,1 hPa 0,0 l/m 2 min 0 min 715 W/m 10,5 km/h (2 Bft) 95,74 %
10.04.2016 15:04 18,2 C 28,9 C 16,1 C 54 % 0 lf 1010,0 hPa 0,0 l/m 2 min 0 min 704 W/m 18,8 km/h (3 Bft) 95,74 %
10.04.2016 15:06 18,3 C 28,9 C 16,1 C 54 % 0 lf 1010,1 hPa 0,0 l/m 2 min 0 min 716 W/m 10,5 km/h (2 Bft) 97,87 %
10.04.2016 15:08 18,3 C 24,4 C 16,1 C 50 % 0 lf 1010,1 hPa 0,0 l/m 2 min 0 min 714 W/m 18,8 km/h (3 Bft) 97,87 %
10.04.2016 15:10 18,3 C 23,9 C 16,1 C 50 % 0 lf 1010,0 hPa 0,0 l/m 2 min 0 min 716 W/m 16,7 km/h (3 Bft) 97,87 %
10.04.2016 15:12 18,2 C 23,3 C 16,1 C 51 % 0 lf 1010,1 hPa 0,0 l/m 2 min 0 min 716 W/m 16,7 km/h (3 Bft) 95,65 %
10.04.2016 15:14 18,2 C 23,3 C 16,1 C 51 % 0 lf 1010,1 hPa 0,0 l/m 2 min 0 min 697 W/m 14,6 km/h (3 Bft) 97,87 %
10.04.2016 15:16 18,2 C 23,3 C 16,1 C 51 % 0 lf 1010,1 hPa 0,0 l/m 2 min 0 min 678 W/m 18,8 km/h (3 Bft) 97,87 %
10.04.2016 15:18 18,2 C 23,3 C 16,7 C 50 % 0 lf 1010,1 hPa 0,0 l/m 2 min 0 min 682 W/m 20,9 km/h (4 Bft) 97,87 %
10.04.2016 15:20 18,3 C 23,3 C 16,7 C 50 % 0 lf 1010,0 hPa 0,0 l/m 2 min 0 min 684 W/m 23,0 km/h (4 Bft) 95,74 %
10.04.2016 15:22 18,3 C 22,8 C 16,7 C 50 % 0 lf 1010,1 hPa 0,0 l/m 2 min 0 min 694 W/m 20,9 km/h (4 Bft) 95,74 %
10.04.2016 15:24 18,3 C 23,3 C 16,7 C 50 % 0 lf 1009,9 hPa 0,0 l/m 2 min 0 min 693 W/m 23,0 km/h (4 Bft) 97,83 %
10.04.2016 15:26 18,3 C 22,2 C 16,7 C 49 % 0 lf 1010,1 hPa 0,0 l/m 2 min 0 min 689 W/m 20,9 km/h (4 Bft) 95,74 %
10.04.2016 15:28 18,3 C 22,2 C 16,7 C 50 % 0 lf 1009,9 hPa 0,0 l/m 2 min 0 min 682 W/m 27,2 km/h (4 Bft) 97,87 %
10.04.2016 15:30 18,2 C 22,2 C 16,1 C 49 % 0 lf 1009,9 hPa 0,0 l/m 2 min 0 min 682 W/m 20,9 km/h (4 Bft) 97,87 %
10.04.2016 15:32 18,2 C 22,2 C 16,1 C 50 % 0 lf 1009,9 hPa 0,0 l/m 2 min 0 min 677 W/m 14,6 km/h (3 Bft) 97,87 %
10.04.2016 15:34 18,1 C 22,2 C 16,1 C 50 % 0 lf 1009,8 hPa 0,0 l/m 2 min 0 min 672 W/m 18,8 km/h (3 Bft) 97,87 %
10.04.2016 15:36 18,1 C 22,8 C 16,1 C 50 % 0 lf 1009,8 hPa 0,0 l/m 2 min 0 min 666 W/m 12,6 km/h (3 Bft) 97,83 %
10.04.2016 15:38 18,1 C 23,3 C 16,1 C 50 % 0 lf 1009,8 hPa 0,0 l/m 2 min 0 min 659 W/m 8,4 km/h (2 Bft) 95,74 %
10.04.2016 15:40 18,1 C 23,9 C 16,1 C 51 % 0 lf 1009,8 hPa 0,0 l/m 2 min 0 min 665 W/m 12,6 km/h (3 Bft) 97,87 %
10.04.2016 15:42 18,1 C 23,9 C 16,7 C 52 % 0 lf 1009,8 hPa 0,0 l/m 2 min 0 min 663 W/m 14,6 km/h (3 Bft) 97,87 %
10.04.2016 15:44 18,2 C 22,2 C 16,7 C 50 % 0 lf 1009,8 hPa 0,0 l/m 2 min 0 min 657 W/m 16,7 km/h (3 Bft) 95,74 %
10.04.2016 15:46 18,1 C 21,1 C 16,7 C 51 % 0 lf 1009,8 hPa 0,0 l/m 2 min 0 min 660 W/m 25,1 km/h (4 Bft) 97,83 %
10.04.2016 15:48 18,1 C 21,7 C 16,7 C 52 % 0 lf 1009,7 hPa 0,0 l/m 2 min 0 min 676 W/m 18,8 km/h (3 Bft) 93,62 %
10.04.2016 15:50 18,1 C 22,2 C 16,7 C 52 % 0 lf 1009,6 hPa 0,0 l/m 2 min 0 min 676 W/m 20,9 km/h (4 Bft) 95,74 %
10.04.2016 15:52 18,1 C 22,8 C 16,7 C 52 % 0 lf 1009,6 hPa 0,0 l/m 2 min 0 min 674 W/m 16,7 km/h (3 Bft) 97,87 %
10.04.2016 15:54 18,1 C 23,9 C 17,2 C 53 % 0 lf 1009,6 hPa 0,0 l/m 2 min 0 min 677 W/m 23,0 km/h (4 Bft) 97,87 %
10.04.2016 15:56 18,2 C 24,4 C 17,8 C 54 % 0 lf 1009,6 hPa 0,0 l/m 2 min 0 min 708 W/m 16,7 km/h (3 Bft) 97,87 %
10.04.2016 15:58 18,3 C 23,9 C 17,8 C 51 % 0 lf 1009,7 hPa 0,0 l/m 2 min 0 min 731 W/m 18,8 km/h (3 Bft) 97,83 %
10.04.2016 16:00 18,4 C 25,0 C 18,3 C 52 % 0 lf 1009,7 hPa 0,0 l/m 2 min 0 min 756 W/m 18,8 km/h (3 Bft) 97,87 %
10.04.2016 16:02 18,5 C 24,4 C 18,3 C 51 % 0 lf 1009,6 hPa 0,0 l/m 2 min 0 min 769 W/m 18,8 km/h (3 Bft) 97,87 %
10.04.2016 16:04 18,6 C 24,4 C 18,3 C 52 % 0 lf 1009,6 hPa 0,0 l/m 2 min 0 min 767 W/m 18,8 km/h (3 Bft) 93,62 %
10.04.2016 16:06 18,7 C 25,0 C 18,3 C 52 % 0 lf 1009,6 hPa 0,0 l/m 2 min 0 min 729 W/m 16,7 km/h (3 Bft) 97,87 %
10.04.2016 16:08 18,8 C 24,4 C 18,3 C 51 % 0 lf 1009,5 hPa 0,0 l/m 2 min 0 min 712 W/m 25,1 km/h (4 Bft) 97,87 %
10.04.2016 16:10 18,9 C 24,4 C 18,3 C 52 % 0 lf 1009,6 hPa 0,0 l/m 2 min 0 min 671 W/m 18,8 km/h (3 Bft) 97,83 %
10.04.2016 16:12 19,0 C 23,3 C 17,2 C 52 % 0 lf 1009,5 hPa 0,0 l/m 2 min 0 min 304 W/m 29,3 km/h (5 Bft) 95,74 %
10.04.2016 16:14 19,1 C 22,8 C 17,2 C 51 % 0 lf 1009,6 hPa 0,0 l/m 0 min 0 min 199 W/m 23,0 km/h (4 Bft) 97,87 %
10.04.2016 16:16 19,0 C 20,6 C 17,2 C 50 % 0 lf 1009,5 hPa 0,0 l/m 0 min 0 min 192 W/m 20,9 km/h (4 Bft) 97,87 %
10.04.2016 16:18 19,0 C 20,0 C 17,2 C 51 % 0 lf 1009,6 hPa 0,0 l/m 0 min 0 min 179 W/m 20,9 km/h (4 Bft) 97,87 %
10.04.2016 16:20 18,9 C 19,4 C 16,7 C 52 % 0 lf 1009,5 hPa 0,0 l/m 0 min 0 min 174 W/m 16,7 km/h (3 Bft) 97,87 %
10.04.2016 16:22 18,9 C 19,4 C 16,7 C 51 % 0 lf 1009,6 hPa 0,0 l/m 0 min 0 min 186 W/m 23,0 km/h (4 Bft) 93,48 %
10.04.2016 16:24 18,8 C 19,4 C 16,7 C 50 % 0 lf 1009,5 hPa 0,0 l/m 0 min 0 min 212 W/m 20,9 km/h (4 Bft) 97,87 %
10.04.2016 16:26 18,7 C 19,4 C 16,7 C 50 % 0 lf 1009,5 hPa 0,0 l/m 2 min 0 min 342 W/m 18,8 km/h (3 Bft) 95,74 %
10.04.2016 16:28 18,6 C 19,4 C 16,1 C 50 % 0 lf 1009,6 hPa 0,0 l/m 2 min 0 min 285 W/m 20,9 km/h (4 Bft) 95,74 %
10.04.2016 16:30 18,4 C 19,4 C 16,1 C 51 % 0 lf 1009,5 hPa 0,0 l/m 0 min 0 min 240 W/m 14,6 km/h (3 Bft) 95,74 %
10.04.2016 16:32 18,3 C 19,4 C 16,7 C 51 % 0 lf 1009,6 hPa 0,0 l/m 0 min 0 min 255 W/m 27,2 km/h (4 Bft) 95,74 %
10.04.2016 16:34 18,2 C 18,9 C 16,1 C 51 % 0 lf 1009,6 hPa 0,0 l/m 0 min 0 min 205 W/m 23,0 km/h (4 Bft) 91,30 %
10.04.2016 16:36 18,1 C 18,9 C 16,1 C 52 % 0 lf 1009,5 hPa 0,0 l/m 0 min 0 min 210 W/m 12,6 km/h (3 Bft) 95,74 %
10.04.2016 16:38 18,0 C 18,9 C 16,1 C 51 % 0 lf 1009,5 hPa 0,0 l/m 0 min 0 min 165 W/m 16,7 km/h (3 Bft) 93,62 %
10.04.2016 16:40 18,0 C 18,9 C 16,1 C 52 % 0 lf 1009,5 hPa 0,0 l/m 0 min 0 min 171 W/m 14,6 km/h (3 Bft) 95,74 %
10.04.2016 16:42 17,9 C 19,4 C 16,1 C 52 % 0 lf 1009,6 hPa 0,0 l/m 0 min 0 min 186 W/m 16,7 km/h (3 Bft) 93,62 %
10.04.2016 16:44 17,9 C 19,4 C 16,1 C 54 % 0 lf 1009,6 hPa 0,0 l/m 0 min 0 min 197 W/m 18,8 km/h (3 Bft) 97,83 %
10.04.2016 16:46 17,8 C 20,0 C 16,1 C 54 % 0 lf 1009,6 hPa 0,0 l/m 0 min 0 min 209 W/m 20,9 km/h (4 Bft) 97,87 %
10.04.2016 16:48 17,9 C 21,7 C 16,7 C 55 % 0 lf 1009,5 hPa 0,0 l/m 2 min 0 min 514 W/m 14,6 km/h (3 Bft) 97,87 %
10.04.2016 16:50 17,9 C 22,8 C 16,7 C 54 % 0 lf 1009,5 hPa 0,0 l/m 2 min 0 min 569 W/m 6,3 km/h (2 Bft) 95,74 %
10.04.2016 16:52 17,9 C 23,3 C 16,7 C 53 % 0 lf 1009,5 hPa 0,0 l/m 2 min 0 min 546 W/m 8,4 km/h (2 Bft) 93,62 %
10.04.2016 16:54 18,0 C 23,3 C 16,7 C 55 % 0 lf 1009,4 hPa 0,0 l/m 2 min 0 min 516 W/m 18,8 km/h (3 Bft) 95,74 %
10.04.2016 16:56 18,1 C 22,8 C 16,7 C 54 % 0 lf 1009,5 hPa 0,0 l/m 2 min 0 min 511 W/m 20,9 km/h (4 Bft) 95,65 %
10.04.2016 16:58 18,2 C 23,9 C 16,7 C 54 % 0 lf 1009,5 hPa 0,0 l/m 2 min 0 min 497 W/m 16,7 km/h (3 Bft) 93,62 %
10.04.2016 17:00 18,2 C 24,4 C 16,7 C 54 % 0 lf 1009,5 hPa 0,0 l/m 2 min 0 min 488 W/m 20,9 km/h (4 Bft) 93,62 %
10.04.2016 17:02 18,3 C 25,0 C 16,7 C 54 % 0 lf 1009,5 hPa 0,0 l/m 2 min 0 min 486 W/m 12,6 km/h (3 Bft) 95,74 %
10.04.2016 17:04 18,4 C 24,4 C 16,7 C 53 % 0 lf 1009,5 hPa 0,0 l/m 2 min 0 min 498 W/m 12,6 km/h (3 Bft) 97,87 %
10.04.2016 17:06 18,4 C 24,4 C 16,1 C 53 % 0 lf 1009,5 hPa 0,0 l/m 2 min 0 min 505 W/m 23,0 km/h (4 Bft) 97,87 %
10.04.2016 17:08 18,4 C 24,4 C 16,7 C 53 % 0 lf 1009,5 hPa 0,0 l/m 2 min 0 min 506 W/m 20,9 km/h (4 Bft) 95,65 %
10.04.2016 17:10 18,4 C 23,9 C 16,7 C 53 % 0 lf 1009,5 hPa 0,0 l/m 2 min 0 min 496 W/m 25,1 km/h (4 Bft) 93,62 %
10.04.2016 17:12 18,5 C 22,8 C 16,7 C 53 % 0 lf 1009,5 hPa 0,0 l/m 2 min 0 min 359 W/m 20,9 km/h (4 Bft) 97,87 %
10.04.2016 17:14 18,5 C 22,2 C 16,7 C 54 % 0 lf 1009,4 hPa 0,0 l/m 0 min 0 min 223 W/m 20,9 km/h (4 Bft) 97,87 %
10.04.2016 17:16 18,5 C 22,2 C 16,7 C 53 % 0 lf 1009,4 hPa 0,0 l/m 2 min 0 min 256 W/m 18,8 km/h (3 Bft) 97,87 %
10.04.2016 17:18 18,5 C 21,7 C 16,1 C 54 % 0 lf 1009,4 hPa 0,0 l/m 0 min 0 min 175 W/m 20,9 km/h (4 Bft) 95,74 %
10.04.2016 17:20 18,4 C 22,2 C 16,1 C 52 % 0 lf 1009,4 hPa 0,0 l/m 0 min 0 min 174 W/m 14,6 km/h (3 Bft) 97,83 %
10.04.2016 17:22 18,4 C 22,8 C 16,7 C 52 % 0 lf 1009,4 hPa 0,0 l/m 2 min 0 min 372 W/m 12,6 km/h (3 Bft) 97,87 %
10.04.2016 17:24 18,4 C 22,2 C 16,7 C 52 % 0 lf 1009,4 hPa 0,0 l/m 2 min 0 min 438 W/m 16,7 km/h (3 Bft) 93,62 %
10.04.2016 17:26 18,4 C 21,7 C 16,7 C 52 % 0 lf 1009,3 hPa 0,0 l/m 2 min 0 min 388 W/m 18,8 km/h (3 Bft) 95,74 %
10.04.2016 17:28 18,4 C 20,0 C 16,7 C 51 % 0 lf 1009,3 hPa 0,0 l/m 2 min 0 min 352 W/m 18,8 km/h (3 Bft) 95,74 %
10.04.2016 17:30 18,4 C 20,0 C 16,7 C 52 % 0 lf 1009,3 hPa 0,0 l/m 2 min 0 min 229 W/m 16,7 km/h (3 Bft) 97,87 %
10.04.2016 17:32 18,3 C 20,6 C 16,1 C 51 % 0 lf 1009,3 hPa 0,0 l/m 2 min 0 min 248 W/m 16,7 km/h (3 Bft) 97,83 %
10.04.2016 17:34 18,3 C 21,1 C 16,7 C 51 % 0 lf 1009,3 hPa 0,0 l/m 2 min 0 min 389 W/m 14,6 km/h (3 Bft) 97,87 %
10.04.2016 17:36 18,3 C 20,6 C 16,7 C 52 % 0 lf 1009,3 hPa 0,0 l/m 2 min 0 min 398 W/m 12,6 km/h (3 Bft) 100,00 %
10.04.2016 17:38 18,3 C 20,6 C 16,7 C 51 % 0 lf 1009,3 hPa 0,0 l/m 2 min 0 min 367 W/m 12,6 km/h (3 Bft) 93,62 %
10.04.2016 17:40 18,3 C 21,7 C 16,7 C 53 % 0 lf 1009,2 hPa 0,0 l/m 2 min 0 min 407 W/m 6,3 km/h (2 Bft) 97,87 %
10.04.2016 17:42 18,3 C 21,7 C 16,7 C 53 % 0 lf 1009,3 hPa 0,0 l/m 2 min 0 min 405 W/m 6,3 km/h (2 Bft) 95,74 %
10.04.2016 17:44 18,3 C 22,2 C 16,7 C 53 % 0 lf 1009,3 hPa 0,0 l/m 2 min 0 min 403 W/m 10,5 km/h (2 Bft) 95,65 %
10.04.2016 17:46 18,3 C 22,8 C 16,7 C 51 % 0 lf 1009,2 hPa 0,0 l/m 2 min 0 min 399 W/m 10,5 km/h (2 Bft) 93,62 %
10.04.2016 17:48 18,3 C 23,9 C 16,7 C 51 % 0 lf 1009,2 hPa 0,0 l/m 2 min 0 min 398 W/m 4,2 km/h (1 Bft) 95,74 %
10.04.2016 17:50 18,3 C 22,8 C 16,1 C 51 % 0 lf 1009,3 hPa 0,0 l/m 2 min 0 min 390 W/m 8,4 km/h (2 Bft) 100,00 %
10.04.2016 17:52 18,4 C 23,3 C 16,1 C 51 % 0 lf 1009,3 hPa 0,0 l/m 2 min 0 min 393 W/m 14,6 km/h (3 Bft) 97,87 %
10.04.2016 17:54 18,4 C 22,8 C 16,1 C 52 % 0 lf 1009,3 hPa 0,0 l/m 2 min 0 min 401 W/m 29,3 km/h (5 Bft) 95,74 %
10.04.2016 17:56 18,4 C 21,7 C 16,1 C 49 % 0 lf 1009,3 hPa 0,0 l/m 2 min 0 min 402 W/m 29,3 km/h (5 Bft) 97,83 %
10.04.2016 17:58 18,5 C 21,1 C 16,7 C 49 % 0 lf 1009,3 hPa 0,0 l/m 2 min 0 min 399 W/m 20,9 km/h (4 Bft) 93,62 %
10.04.2016 18:00 18,5 C 21,1 C 16,7 C 48 % 0 lf 1009,4 hPa 0,0 l/m 2 min 0 min 394 W/m 31,4 km/h (5 Bft) 100,00 %
10.04.2016 18:02 18,6 C 21,1 C 16,7 C 48 % 0 lf 1009,4 hPa 0,0 l/m 2 min 0 min 387 W/m 27,2 km/h (4 Bft) 97,87 %
10.04.2016 18:04 18,6 C 21,1 C 16,7 C 48 % 0 lf 1009,3 hPa 0,0 l/m 2 min 0 min 361 W/m 20,9 km/h (4 Bft) 95,74 %
10.04.2016 18:06 18,6 C 21,1 C 16,7 C 49 % 0 lf 1009,3 hPa 0,0 l/m 2 min 0 min 301 W/m 23,0 km/h (4 Bft) 100,00 %
10.04.2016 18:08 18,7 C 20,0 C 16,7 C 48 % 0 lf 1009,3 hPa 0,0 l/m 2 min 0 min 239 W/m 29,3 km/h (5 Bft) 95,74 %
10.04.2016 18:10 18,7 C 20,6 C 16,7 C 49 % 0 lf 1009,4 hPa 0,0 l/m 2 min 0 min 281 W/m 27,2 km/h (4 Bft) 97,87 %
10.04.2016 18:12 18,7 C 19,4 C 16,7 C 48 % 0 lf 1009,4 hPa 0,0 l/m 2 min 0 min 198 W/m 27,2 km/h (4 Bft) 95,74 %
10.04.2016 18:14 18,6 C 18,9 C 16,7 C 48 % 0 lf 1009,4 hPa 0,0 l/m 0 min 0 min 108 W/m 27,2 km/h (4 Bft) 95,74 %
10.04.2016 18:16 18,6 C 18,3 C 16,7 C 48 % 0 lf 1009,4 hPa 0,0 l/m 0 min 0 min 102 W/m 14,6 km/h (3 Bft) 97,87 %
10.04.2016 18:18 18,6 C 18,3 C 16,7 C 49 % 0 lf 1009,4 hPa 0,0 l/m 0 min 0 min 100 W/m 20,9 km/h (4 Bft) 97,87 %
10.04.2016 18:20 18,5 C 18,3 C 16,1 C 49 % 0 lf 1009,4 hPa 0,0 l/m 0 min 0 min 101 W/m 25,1 km/h (4 Bft) 95,65 %
10.04.2016 18:22 18,4 C 17,8 C 16,1 C 49 % 0 lf 1009,4 hPa 0,0 l/m 0 min 0 min 106 W/m 23,0 km/h (4 Bft) 97,87 %
10.04.2016 18:24 18,3 C 17,8 C 16,1 C 48 % 0 lf 1009,4 hPa 0,0 l/m 0 min 0 min 115 W/m 29,3 km/h (5 Bft) 95,74 %
10.04.2016 18:26 18,2 C 17,8 C 16,1 C 49 % 0 lf 1009,4 hPa 0,0 l/m 0 min 0 min 110 W/m 14,6 km/h (3 Bft) 93,62 %
10.04.2016 18:28 18,2 C 17,8 C 15,6 C 49 % 0 lf 1009,4 hPa 0,0 l/m 0 min 0 min 121 W/m 25,1 km/h (4 Bft) 97,87 %
10.04.2016 18:30 18,1 C 17,8 C 15,6 C 49 % 0 lf 1009,4 hPa 0,0 l/m 2 min 0 min 162 W/m 29,3 km/h (5 Bft) 93,48 %
10.04.2016 18:32 18,0 C 17,8 C 15,6 C 50 % 0 lf 1009,4 hPa 0,0 l/m 2 min 0 min 210 W/m 25,1 km/h (4 Bft) 95,74 %
10.04.2016 18:34 18,0 C 18,3 C 15,6 C 50 % 0 lf 1009,3 hPa 0,0 l/m 2 min 0 min 248 W/m 23,0 km/h (4 Bft) 93,62 %
10.04.2016 18:36 17,9 C 18,3 C 16,1 C 50 % 0 lf 1009,3 hPa 0,0 l/m 2 min 0 min 233 W/m 20,9 km/h (4 Bft) 93,62 %
10.04.2016 18:38 17,9 C 18,3 C 15,6 C 50 % 0 lf 1009,4 hPa 0,0 l/m 2 min 0 min 214 W/m 18,8 km/h (3 Bft) 95,74 %
10.04.2016 18:40 17,9 C 17,8 C 15,6 C 50 % 0 lf 1009,4 hPa 0,0 l/m 2 min 0 min 201 W/m 31,4 km/h (5 Bft) 91,49 %
10.04.2016 18:42 17,9 C 17,8 C 15,6 C 50 % 0 lf 1009,4 hPa 0,0 l/m 2 min 0 min 190 W/m 16,7 km/h (3 Bft) 93,48 %
10.04.2016 18:44 17,8 C 17,8 C 15,6 C 50 % 0 lf 1009,4 hPa 0,0 l/m 2 min 0 min 180 W/m 23,0 km/h (4 Bft) 91,49 %
10.04.2016 18:46 17,8 C 17,8 C 15,6 C 50 % 0 lf 1009,4 hPa 0,0 l/m 2 min 0 min 172 W/m 27,2 km/h (4 Bft) 93,62 %
10.04.2016 18:48 17,8 C 17,8 C 15,6 C 50 % 0 lf 1009,4 hPa 0,0 l/m 2 min 0 min 174 W/m 20,9 km/h (4 Bft) 93,62 %
10.04.2016 18:50 17,8 C 17,8 C 15,6 C 50 % 0 lf 1009,3 hPa 0,0 l/m 2 min 0 min 174 W/m 25,1 km/h (4 Bft) 93,62 %
10.04.2016 18:52 17,8 C 18,3 C 15,6 C 51 % 0 lf 1009,4 hPa 0,0 l/m 2 min 0 min 175 W/m 20,9 km/h (4 Bft) 89,36 %
10.04.2016 18:54 17,8 C 18,3 C 15,6 C 51 % 0 lf 1009,4 hPa 0,0 l/m 2 min 0 min 183 W/m 23,0 km/h (4 Bft) 93,48 %
10.04.2016 18:56 17,8 C 18,3 C 15,6 C 51 % 0 lf 1009,4 hPa 0,0 l/m 2 min 0 min 188 W/m 25,1 km/h (4 Bft) 93,62 %
10.04.2016 18:58 17,7 C 17,8 C 15,6 C 50 % 0 lf 1009,4 hPa 0,0 l/m 2 min 0 min 183 W/m 14,6 km/h (3 Bft) 89,36 %
10.04.2016 19:00 17,7 C 18,3 C 16,1 C 51 % 0 lf 1009,4 hPa 0,0 l/m 2 min 0 min 175 W/m 20,9 km/h (4 Bft) 91,49 %
10.04.2016 19:02 17,7 C 18,3 C 16,1 C 51 % 0 lf 1009,4 hPa 0,0 l/m 2 min 0 min 165 W/m 16,7 km/h (3 Bft) 95,74 %
10.04.2016 19:04 17,7 C 17,8 C 16,1 C 51 % 0 lf 1009,3 hPa 0,0 l/m 2 min 0 min 156 W/m 23,0 km/h (4 Bft) 95,74 %
10.04.2016 19:06 17,7 C 17,8 C 16,1 C 51 % 0 lf 1009,3 hPa 0,0 l/m 2 min 0 min 139 W/m 23,0 km/h (4 Bft) 93,48 %
10.04.2016 19:08 17,7 C 17,8 C 15,6 C 52 % 0 lf 1009,5 hPa 0,0 l/m 2 min 0 min 126 W/m 27,2 km/h (4 Bft) 95,74 %
10.04.2016 19:10 17,7 C 17,8 C 15,6 C 51 % 0 lf 1009,4 hPa 0,0 l/m 2 min 0 min 115 W/m 31,4 km/h (5 Bft) 95,74 %
10.04.2016 19:12 17,7 C 17,2 C 15,6 C 51 % 0 lf 1009,4 hPa 0,0 l/m 2 min 0 min 89 W/m 20,9 km/h (4 Bft) 95,74 %
10.04.2016 19:14 17,7 C 17,2 C 15,0 C 51 % 0 lf 1009,4 hPa 0,0 l/m 0 min 0 min 69 W/m 29,3 km/h (5 Bft) 97,87 %
10.04.2016 19:16 17,6 C 17,2 C 15,0 C 51 % 0 lf 1009,4 hPa 0,0 l/m 0 min 0 min 56 W/m 25,1 km/h (4 Bft) 100,00 %
10.04.2016 19:18 17,6 C 17,2 C 15,0 C 51 % 0 lf 1009,3 hPa 0,0 l/m 0 min 0 min 54 W/m 23,0 km/h (4 Bft) 100,00 %
10.04.2016 19:20 17,5 C 17,2 C 15,0 C 51 % 0 lf 1009,4 hPa 0,0 l/m 0 min 0 min 55 W/m 23,0 km/h (4 Bft) 100,00 %
10.04.2016 19:22 17,5 C 17,2 C 15,0 C 52 % 0 lf 1009,4 hPa 0,0 l/m 0 min 0 min 58 W/m 20,9 km/h (4 Bft) 97,87 %
10.04.2016 19:24 17,4 C 17,2 C 15,0 C 51 % 0 lf 1009,4 hPa 0,0 l/m 0 min 0 min 55 W/m 25,1 km/h (4 Bft) 100,00 %
10.04.2016 19:26 17,4 C 17,2 C 15,0 C 51 % 0 lf 1009,4 hPa 0,0 l/m 0 min 0 min 56 W/m 23,0 km/h (4 Bft) 97,87 %
10.04.2016 19:28 17,3 C 17,2 C 15,0 C 52 % 0 lf 1009,5 hPa 0,0 l/m 0 min 0 min 60 W/m 18,8 km/h (3 Bft) 97,87 %
10.04.2016 19:30 17,3 C 17,2 C 15,0 C 52 % 0 lf 1009,5 hPa 0,0 l/m 0 min 0 min 60 W/m 18,8 km/h (3 Bft) 97,83 %
10.04.2016 19:32 17,3 C 17,2 C 15,0 C 52 % 0 lf 1009,5 hPa 0,0 l/m 2 min 0 min 61 W/m 12,6 km/h (3 Bft) 91,49 %
10.04.2016 19:34 17,3 C 17,2 C 15,0 C 52 % 0 lf 1009,5 hPa 0,0 l/m 2 min 0 min 57 W/m 20,9 km/h (4 Bft) 97,87 %
10.04.2016 19:36 17,2 C 16,7 C 15,0 C 52 % 0 lf 1009,5 hPa 0,0 l/m 0 min 0 min 53 W/m 18,8 km/h (3 Bft) 100,00 %
10.04.2016 19:38 17,2 C 16,7 C 15,0 C 52 % 0 lf 1009,6 hPa 0,0 l/m 0 min 0 min 51 W/m 20,9 km/h (4 Bft) 100,00 %
10.04.2016 19:40 17,2 C 16,7 C 14,4 C 53 % 0 lf 1009,5 hPa 0,0 l/m 0 min 0 min 48 W/m 18,8 km/h (3 Bft) 97,83 %
10.04.2016 19:42 17,1 C 16,7 C 14,4 C 53 % 0 lf 1009,5 hPa 0,0 l/m 0 min 0 min 45 W/m 18,8 km/h (3 Bft) 97,87 %
10.04.2016 19:44 17,1 C 16,7 C 14,4 C 53 % 0 lf 1009,5 hPa 0,0 l/m 0 min 0 min 41 W/m 23,0 km/h (4 Bft) 95,74 %
10.04.2016 19:46 17,0 C 16,7 C 14,4 C 53 % 0 lf 1009,6 hPa 0,0 l/m 0 min 0 min 38 W/m 25,1 km/h (4 Bft) 100,00 %
10.04.2016 19:48 16,9 C 16,1 C 14,4 C 53 % 0 lf 1009,5 hPa 0,0 l/m 0 min 0 min 33 W/m 20,9 km/h (4 Bft) 100,00 %
10.04.2016 19:50 16,9 C 16,1 C 14,4 C 54 % 0 lf 1009,6 hPa 0,0 l/m 0 min 0 min 29 W/m 18,8 km/h (3 Bft) 95,74 %
10.04.2016 19:52 16,8 C 16,1 C 13,9 C 54 % 0 lf 1009,5 hPa 0,0 l/m 0 min 0 min 27 W/m 12,6 km/h (3 Bft) 100,00 %
10.04.2016 19:54 16,8 C 16,1 C 13,9 C 54 % 0 lf 1009,6 hPa 0,0 l/m 0 min 0 min 25 W/m 18,8 km/h (3 Bft) 100,00 %
10.04.2016 19:56 16,7 C 16,1 C 13,9 C 54 % 0 lf 1009,6 hPa 0,0 l/m 0 min 0 min 23 W/m 16,7 km/h (3 Bft) 100,00 %
10.04.2016 19:58 16,7 C 16,1 C 13,9 C 54 % 0 lf 1009,6 hPa 0,0 l/m 0 min 0 min 21 W/m 14,6 km/h (3 Bft) 97,87 %
10.04.2016 20:00 16,6 C 15,6 C 13,3 C 54 % 0 lf 1009,5 hPa 0,0 l/m 0 min 0 min 20 W/m 18,8 km/h (3 Bft) 100,00 %
10.04.2016 20:02 16,6 C 15,6 C 13,3 C 54 % 0 lf 1009,6 hPa 0,0 l/m 0 min 0 min 19 W/m 25,1 km/h (4 Bft) 97,87 %
10.04.2016 20:04 16,4 C 15,6 C 13,9 C 54 % 0 lf 1009,6 hPa 0,0 l/m 0 min 0 min 18 W/m 23,0 km/h (4 Bft) 97,83 %
10.04.2016 20:06 16,4 C 15,6 C 13,9 C 54 % 0 lf 1009,6 hPa 0,0 l/m 0 min 0 min 16 W/m 18,8 km/h (3 Bft) 97,87 %
10.04.2016 20:08 16,3 C 15,6 C 13,9 C 55 % 0 lf 1009,6 hPa 0,0 l/m 0 min 0 min 14 W/m 20,9 km/h (4 Bft) 100,00 %
10.04.2016 20:10 16,2 C 15,6 C 13,9 C 54 % 0 lf 1009,6 hPa 0,0 l/m 0 min 0 min 14 W/m 20,9 km/h (4 Bft) 97,87 %
10.04.2016 20:12 16,2 C 15,6 C 13,9 C 55 % 0 lf 1009,6 hPa 0,0 l/m 0 min 0 min 12 W/m 23,0 km/h (4 Bft) 97,87 %
10.04.2016 20:14 16,1 C 15,6 C 13,3 C 55 % 0 lf 1009,6 hPa 0,0 l/m 0 min 0 min 11 W/m 23,0 km/h (4 Bft) 100,00 %
10.04.2016 20:16 16,0 C 15,6 C 13,3 C 55 % 0 lf 1009,6 hPa 0,0 l/m 0 min 0 min 11 W/m 18,8 km/h (3 Bft) 100,00 %
10.04.2016 20:18 15,9 C 15,6 C 13,3 C 55 % 0 lf 1009,6 hPa 0,0 l/m 0 min 0 min 9 W/m 18,8 km/h (3 Bft) 97,87 %
10.04.2016 20:20 15,9 C 15,6 C 13,3 C 55 % 0 lf 1009,6 hPa 0,0 l/m 0 min 0 min 7 W/m 16,7 km/h (3 Bft) 97,87 %
10.04.2016 20:22 15,8 C 15,6 C 13,3 C 55 % 0 lf 1009,7 hPa 0,0 l/m 0 min 0 min 7 W/m 18,8 km/h (3 Bft) 97,87 %
10.04.2016 20:24 15,8 C 15,0 C 13,3 C 56 % 0 lf 1009,6 hPa 0,0 l/m 0 min 0 min 5 W/m 20,9 km/h (4 Bft) 93,62 %
10.04.2016 20:26 15,7 C 15,0 C 13,3 C 56 % 0 lf 1009,6 hPa 0,0 l/m 0 min 0 min 5 W/m 18,8 km/h (3 Bft) 95,74 %
10.04.2016 20:28 15,7 C 15,0 C 13,3 C 56 % 0 lf 1009,6 hPa 0,0 l/m 0 min 0 min 2 W/m 16,7 km/h (3 Bft) 97,83 %
10.04.2016 20:30 15,6 C 15,0 C 12,8 C 57 % 0 lf 1009,6 hPa 0,0 l/m 0 min 0 min 0 W/m 16,7 km/h (3 Bft) 97,87 %
10.04.2016 20:32 15,6 C 15,0 C 13,3 C 56 % 0 lf 1009,6 hPa 0,0 l/m 0 min 0 min 0 W/m 20,9 km/h (4 Bft) 97,87 %
10.04.2016 20:34 15,5 C 15,0 C 13,3 C 57 % 0 lf 1009,6 hPa 0,0 l/m 0 min 0 min 0 W/m 14,6 km/h (3 Bft) 97,87 %
10.04.2016 20:36 15,5 C 15,0 C 12,8 C 57 % 0 lf 1009,7 hPa 0,0 l/m 0 min 0 min 0 W/m 16,7 km/h (3 Bft) 95,74 %
10.04.2016 20:38 15,4 C 15,0 C 12,8 C 57 % 0 lf 1009,6 hPa 0,0 l/m 0 min 0 min 0 W/m 20,9 km/h (4 Bft) 95,74 %
10.04.2016 20:40 15,3 C 15,0 C 12,8 C 57 % 0 lf 1009,7 hPa 0,0 l/m 0 min 0 min 0 W/m 14,6 km/h (3 Bft) 97,83 %
10.04.2016 20:42 15,3 C 14,4 C 12,8 C 58 % 0 lf 1009,7 hPa 0,0 l/m 0 min 0 min 0 W/m 31,4 km/h (5 Bft) 97,87 %
10.04.2016 20:44 15,2 C 14,4 C 12,8 C 58 % 0 lf 1009,7 hPa 0,0 l/m 0 min 0 min 0 W/m 14,6 km/h (3 Bft) 93,62 %
10.04.2016 20:46 15,2 C 15,0 C 12,8 C 58 % 0 lf 1009,7 hPa 0,0 l/m 0 min 0 min 0 W/m 16,7 km/h (3 Bft) 93,62 %
10.04.2016 20:48 15,2 C 15,0 C 12,8 C 58 % 0 lf 1009,7 hPa 0,0 l/m 0 min 0 min 0 W/m 18,8 km/h (3 Bft) 95,74 %
10.04.2016 20:50 15,1 C 15,0 C 12,8 C 58 % 0 lf 1009,7 hPa 0,0 l/m 0 min 0 min 0 W/m 23,0 km/h (4 Bft) 95,65 %
10.04.2016 20:52 15,1 C 15,0 C 12,8 C 58 % 0 lf 1009,7 hPa 0,0 l/m 0 min 0 min 0 W/m 20,9 km/h (4 Bft) 93,62 %
10.04.2016 20:54 15,1 C 15,0 C 12,8 C 58 % 0 lf 1009,7 hPa 0,0 l/m 0 min 0 min 0 W/m 27,2 km/h (4 Bft) 89,36 %
10.04.2016 20:56 15,0 C 15,0 C 12,8 C 58 % 0 lf 1009,7 hPa 0,0 l/m 0 min 0 min 0 W/m 16,7 km/h (3 Bft) 93,62 %
10.04.2016 20:58 15,0 C 15,0 C 12,8 C 58 % 0 lf 1009,7 hPa 0,0 l/m 0 min 0 min 0 W/m 20,9 km/h (4 Bft) 95,74 %
10.04.2016 21:00 15,0 C 15,0 C 12,8 C 58 % 0 lf 1009,8 hPa 0,0 l/m 0 min 0 min 0 W/m 16,7 km/h (3 Bft) 93,62 %
10.04.2016 21:02 14,9 C 14,4 C 12,8 C 58 % 0 lf 1009,8 hPa 0,0 l/m 0 min 0 min 0 W/m 16,7 km/h (3 Bft) 93,48 %
10.04.2016 21:04 14,9 C 14,4 C 12,8 C 58 % 0 lf 1009,8 hPa 0,0 l/m 0 min 0 min 0 W/m 16,7 km/h (3 Bft) 93,62 %
10.04.2016 21:06 14,9 C 14,4 C 12,8 C 58 % 0 lf 1009,8 hPa 0,0 l/m 0 min 0 min 0 W/m 18,8 km/h (3 Bft) 95,74 %
10.04.2016 21:08 14,9 C 14,4 C 12,8 C 58 % 0 lf 1009,8 hPa 0,0 l/m 0 min 0 min 0 W/m 20,9 km/h (4 Bft) 93,62 %
10.04.2016 21:10 14,8 C 14,4 C 12,8 C 59 % 0 lf 1009,9 hPa 0,0 l/m 0 min 0 min 0 W/m 16,7 km/h (3 Bft) 91,49 %
10.04.2016 21:12 14,8 C 14,4 C 12,8 C 59 % 0 lf 1009,9 hPa 0,0 l/m 0 min 0 min 0 W/m 23,0 km/h (4 Bft) 89,36 %
10.04.2016 21:14 14,8 C 14,4 C 12,8 C 59 % 0 lf 1009,9 hPa 0,0 l/m 0 min 0 min 0 W/m 18,8 km/h (3 Bft) 93,48 %
10.04.2016 21:16 14,7 C 14,4 C 12,8 C 59 % 0 lf 1009,9 hPa 0,0 l/m 0 min 0 min 0 W/m 23,0 km/h (4 Bft) 93,62 %
10.04.2016 21:18 14,7 C 14,4 C 12,8 C 59 % 0 lf 1010,0 hPa 0,0 l/m 0 min 0 min 0 W/m 25,1 km/h (4 Bft) 89,36 %
10.04.2016 21:20 14,7 C 14,4 C 12,8 C 59 % 0 lf 1009,9 hPa 0,0 l/m 0 min 0 min 0 W/m 23,0 km/h (4 Bft) 93,62 %
10.04.2016 21:22 14,7 C 14,4 C 12,8 C 59 % 0 lf 1009,9 hPa 0,0 l/m 0 min 0 min 0 W/m 23,0 km/h (4 Bft) 93,62 %
10.04.2016 21:24 14,7 C 14,4 C 12,8 C 59 % 0 lf 1009,9 hPa 0,0 l/m 0 min 0 min 0 W/m 16,7 km/h (3 Bft) 95,74 %
10.04.2016 21:26 14,6 C 14,4 C 12,8 C 59 % 0 lf 1010,0 hPa 0,0 l/m 0 min 0 min 0 W/m 23,0 km/h (4 Bft) 95,65 %
10.04.2016 21:28 14,6 C 14,4 C 12,8 C 59 % 0 lf 1010,0 hPa 0,0 l/m 0 min 0 min 0 W/m 23,0 km/h (4 Bft) 91,49 %
10.04.2016 21:30 14,6 C 14,4 C 12,8 C 59 % 0 lf 1010,0 hPa 0,0 l/m 0 min 0 min 0 W/m 18,8 km/h (3 Bft) 93,62 %
10.04.2016 21:32 14,6 C 14,4 C 12,2 C 59 % 0 lf 1010,0 hPa 0,0 l/m 0 min 0 min 0 W/m 16,7 km/h (3 Bft) 95,74 %
10.04.2016 21:34 14,6 C 13,9 C 12,2 C 59 % 0 lf 1010,1 hPa 0,0 l/m 0 min 0 min 0 W/m 14,6 km/h (3 Bft) 93,62 %
10.04.2016 21:36 14,5 C 13,9 C 12,2 C 59 % 0 lf 1010,1 hPa 0,0 l/m 0 min 0 min 0 W/m 23,0 km/h (4 Bft) 95,74 %
10.04.2016 21:38 14,5 C 13,9 C 12,2 C 59 % 0 lf 1010,2 hPa 0,0 l/m 0 min 0 min 0 W/m 18,8 km/h (3 Bft) 95,65 %
10.04.2016 21:40 14,4 C 13,9 C 12,2 C 60 % 0 lf 1010,1 hPa 0,0 l/m 0 min 0 min 0 W/m 18,8 km/h (3 Bft) 97,87 %
10.04.2016 21:42 14,4 C 13,9 C 12,2 C 60 % 0 lf 1010,1 hPa 0,0 l/m 0 min 0 min 0 W/m 14,6 km/h (3 Bft) 93,62 %
10.04.2016 21:44 14,3 C 13,9 C 12,2 C 60 % 0 lf 1010,2 hPa 0,0 l/m 0 min 0 min 0 W/m 14,6 km/h (3 Bft) 93,62 %
10.04.2016 21:46 14,3 C 13,9 C 11,7 C 60 % 0 lf 1010,2 hPa 0,0 l/m 0 min 0 min 0 W/m 18,8 km/h (3 Bft) 93,62 %
10.04.2016 21:48 14,2 C 13,9 C 11,7 C 60 % 0 lf 1010,2 hPa 0,0 l/m 0 min 0 min 0 W/m 14,6 km/h (3 Bft) 95,74 %
10.04.2016 21:50 14,2 C 13,9 C 11,7 C 60 % 0 lf 1010,3 hPa 0,0 l/m 0 min 0 min 0 W/m 14,6 km/h (3 Bft) 95,65 %
10.04.2016 21:52 14,2 C 13,9 C 11,7 C 60 % 0 lf 1010,3 hPa 0,0 l/m 0 min 0 min 0 W/m 10,5 km/h (2 Bft) 93,62 %
10.04.2016 21:54 14,2 C 13,9 C 11,7 C 60 % 0 lf 1010,2 hPa 0,0 l/m 0 min 0 min 0 W/m 16,7 km/h (3 Bft) 93,62 %
10.04.2016 21:56 14,2 C 13,9 C 11,7 C 60 % 0 lf 1010,3 hPa 0,0 l/m 0 min 0 min 0 W/m 14,6 km/h (3 Bft) 93,62 %
10.04.2016 21:58 14,2 C 13,3 C 11,7 C 61 % 0 lf 1010,3 hPa 0,0 l/m 0 min 0 min 0 W/m 12,6 km/h (3 Bft) 95,74 %
10.04.2016 22:00 14,2 C 13,3 C 11,1 C 61 % 0 lf 1010,3 hPa 0,0 l/m 0 min 0 min 0 W/m 12,6 km/h (3 Bft) 97,83 %
10.04.2016 22:02 14,2 C 13,3 C 11,1 C 61 % 0 lf 1010,3 hPa 0,0 l/m 0 min 0 min 0 W/m 12,6 km/h (3 Bft) 97,87 %
10.04.2016 22:04 14,1 C 13,3 C 11,1 C 61 % 0 lf 1010,3 hPa 0,0 l/m 0 min 0 min 0 W/m 12,6 km/h (3 Bft) 97,87 %
10.04.2016 22:06 14,0 C 13,3 C 11,1 C 61 % 0 lf 1010,3 hPa 0,0 l/m 0 min 0 min 0 W/m 12,6 km/h (3 Bft) 100,00 %
10.04.2016 22:08 13,9 C 13,3 C 11,1 C 61 % 0 lf 1010,3 hPa 0,0 l/m 0 min 0 min 0 W/m 10,5 km/h (2 Bft) 100,00 %
10.04.2016 22:10 13,9 C 13,3 C 11,1 C 61 % 0 lf 1010,3 hPa 0,0 l/m 0 min 0 min 0 W/m 6,3 km/h (2 Bft) 100,00 %
10.04.2016 22:12 13,9 C 12,8 C 10,6 C 62 % 0 lf 1010,3 hPa 0,0 l/m 0 min 0 min 0 W/m 10,5 km/h (2 Bft) 97,83 %
10.04.2016 22:14 13,8 C 12,8 C 10,6 C 62 % 0 lf 1010,3 hPa 0,0 l/m 0 min 0 min 0 W/m 14,6 km/h (3 Bft) 97,87 %
10.04.2016 22:16 13,8 C 12,8 C 10,6 C 62 % 0 lf 1010,3 hPa 0,0 l/m 0 min 0 min 0 W/m 12,6 km/h (3 Bft) 97,87 %
10.04.2016 22:18 13,7 C 12,8 C 10,6 C 62 % 0 lf 1010,3 hPa 0,0 l/m 0 min 0 min 0 W/m 14,6 km/h (3 Bft) 95,74 %
10.04.2016 22:20 13,7 C 12,8 C 10,6 C 62 % 0 lf 1010,3 hPa 0,0 l/m 0 min 0 min 0 W/m 12,6 km/h (3 Bft) 100,00 %
10.04.2016 22:22 13,6 C 12,8 C 10,6 C 62 % 0 lf 1010,4 hPa 0,0 l/m 0 min 0 min 0 W/m 14,6 km/h (3 Bft) 95,74 %
10.04.2016 22:24 13,6 C 12,8 C 10,6 C 62 % 0 lf 1010,3 hPa 0,0 l/m 0 min 0 min 0 W/m 10,5 km/h (2 Bft) 100,00 %
10.04.2016 22:26 13,6 C 12,8 C 10,6 C 63 % 0 lf 1010,3 hPa 0,0 l/m 0 min 0 min 0 W/m 8,4 km/h (2 Bft) 100,00 %
10.04.2016 22:28 13,5 C 12,8 C 10,6 C 63 % 0 lf 1010,3 hPa 0,0 l/m 0 min 0 min 0 W/m 16,7 km/h (3 Bft) 100,00 %
10.04.2016 22:30 13,4 C 12,8 C 10,6 C 63 % 0 lf 1010,3 hPa 0,0 l/m 0 min 0 min 0 W/m 8,4 km/h (2 Bft) 97,87 %
10.04.2016 22:32 13,4 C 12,8 C 10,6 C 63 % 0 lf 1010,3 hPa 0,0 l/m 0 min 0 min 0 W/m 6,3 km/h (2 Bft) 100,00 %
10.04.2016 22:34 13,4 C 12,2 C 10,0 C 63 % 0 lf 1010,3 hPa 0,0 l/m 0 min 0 min 0 W/m 8,4 km/h (2 Bft) 93,62 %
10.04.2016 22:36 13,3 C 12,2 C 10,0 C 63 % 0 lf 1010,3 hPa 0,0 l/m 0 min 0 min 0 W/m 10,5 km/h (2 Bft) 95,65 %
10.04.2016 22:38 13,3 C 12,2 C 10,0 C 63 % 0 lf 1010,3 hPa 0,0 l/m 0 min 0 min 0 W/m 8,4 km/h (2 Bft) 100,00 %
10.04.2016 22:40 13,2 C 12,2 C 10,0 C 63 % 0 lf 1010,3 hPa 0,0 l/m 0 min 0 min 0 W/m 8,4 km/h (2 Bft) 100,00 %
10.04.2016 22:42 13,2 C 12,2 C 10,0 C 64 % 0 lf 1010,3 hPa 0,0 l/m 0 min 0 min 0 W/m 8,4 km/h (2 Bft) 97,87 %
10.04.2016 22:44 13,2 C 12,2 C 10,0 C 64 % 0 lf 1010,3 hPa 0,0 l/m 0 min 0 min 0 W/m 6,3 km/h (2 Bft) 95,74 %
10.04.2016 22:46 13,1 C 11,7 C 10,0 C 64 % 0 lf 1010,4 hPa 0,0 l/m 0 min 0 min 0 W/m 10,5 km/h (2 Bft) 97,87 %
10.04.2016 22:48 13,1 C 11,7 C 10,0 C 64 % 0 lf 1010,4 hPa 0,0 l/m 0 min 0 min 0 W/m 10,5 km/h (2 Bft) 97,83 %
10.04.2016 22:50 13,0 C 11,7 C 9,4 C 64 % 0 lf 1010,4 hPa 0,0 l/m 0 min 0 min 0 W/m 8,4 km/h (2 Bft) 97,87 %
10.04.2016 22:52 12,9 C 11,7 C 9,4 C 64 % 0 lf 1010,3 hPa 0,0 l/m 0 min 0 min 0 W/m 10,5 km/h (2 Bft) 93,62 %
10.04.2016 22:54 12,9 C 11,7 C 9,4 C 64 % 0 lf 1010,4 hPa 0,0 l/m 0 min 0 min 0 W/m 6,3 km/h (2 Bft) 93,62 %
10.04.2016 22:56 12,8 C 11,7 C 9,4 C 64 % 0 lf 1010,3 hPa 0,0 l/m 0 min 0 min 0 W/m 6,3 km/h (2 Bft) 97,87 %
10.04.2016 22:58 12,8 C 11,7 C 9,4 C 65 % 0 lf 1010,4 hPa 0,0 l/m 0 min 0 min 0 W/m 8,4 km/h (2 Bft) 97,87 %
10.04.2016 23:00 12,7 C 11,7 C 9,4 C 65 % 0 lf 1010,5 hPa 0,0 l/m 0 min 0 min 0 W/m 6,3 km/h (2 Bft) 97,83 %
10.04.2016 23:02 12,7 C 11,7 C 8,9 C 65 % 0 lf 1010,5 hPa 0,0 l/m 0 min 0 min 0 W/m 6,3 km/h (2 Bft) 97,87 %
10.04.2016 23:04 12,7 C 11,7 C 8,9 C 65 % 0 lf 1010,5 hPa 0,0 l/m 0 min 0 min 0 W/m 6,3 km/h (2 Bft) 97,87 %
10.04.2016 23:06 12,6 C 11,1 C 8,9 C 65 % 0 lf 1010,5 hPa 0,0 l/m 0 min 0 min 0 W/m 6,3 km/h (2 Bft) 97,87 %
10.04.2016 23:08 12,6 C 11,1 C 8,9 C 65 % 0 lf 1010,5 hPa 0,0 l/m 0 min 0 min 0 W/m 10,5 km/h (2 Bft) 97,87 %
10.04.2016 23:10 12,5 C 11,1 C 8,9 C 65 % 0 lf 1010,6 hPa 0,0 l/m 0 min 0 min 0 W/m 10,5 km/h (2 Bft) 97,87 %
10.04.2016 23:12 12,4 C 11,1 C 8,3 C 65 % 0 lf 1010,6 hPa 0,0 l/m 0 min 0 min 0 W/m 6,3 km/h (2 Bft) 93,48 %
10.04.2016 23:14 12,4 C 11,1 C 8,3 C 66 % 0 lf 1010,6 hPa 0,0 l/m 0 min 0 min 0 W/m 10,5 km/h (2 Bft) 97,87 %
10.04.2016 23:16 12,3 C 10,6 C 8,3 C 66 % 0 lf 1010,6 hPa 0,0 l/m 0 min 0 min 0 W/m 8,4 km/h (2 Bft) 97,87 %
10.04.2016 23:18 12,3 C 10,6 C 8,3 C 66 % 0 lf 1010,6 hPa 0,0 l/m 0 min 0 min 0 W/m 10,5 km/h (2 Bft) 100,00 %
10.04.2016 23:20 12,2 C 10,6 C 8,3 C 66 % 0 lf 1010,6 hPa 0,0 l/m 0 min 0 min 0 W/m 8,4 km/h (2 Bft) 100,00 %
10.04.2016 23:22 12,2 C 10,6 C 8,3 C 66 % 0 lf 1010,7 hPa 0,0 l/m 0 min 0 min 0 W/m 8,4 km/h (2 Bft) 97,83 %
10.04.2016 23:24 12,1 C 10,6 C 8,3 C 66 % 0 lf 1010,7 hPa 0,0 l/m 0 min 0 min 0 W/m 6,3 km/h (2 Bft) 97,87 %
10.04.2016 23:26 12,0 C 10,6 C 8,3 C 66 % 0 lf 1010,7 hPa 0,0 l/m 0 min 0 min 0 W/m 6,3 km/h (2 Bft) 100,00 %
10.04.2016 23:28 11,9 C 10,6 C 8,3 C 67 % 0 lf 1010,7 hPa 0,0 l/m 0 min 0 min 0 W/m 8,4 km/h (2 Bft) 93,62 %
10.04.2016 23:30 11,9 C 10,6 C 7,8 C 67 % 0 lf 1010,6 hPa 0,0 l/m 0 min 0 min 0 W/m 8,4 km/h (2 Bft) 100,00 %
10.04.2016 23:32 11,8 C 10,6 C 8,3 C 67 % 0 lf 1010,7 hPa 0,0 l/m 0 min 0 min 0 W/m 8,4 km/h (2 Bft) 100,00 %
10.04.2016 23:34 11,8 C 10,6 C 8,3 C 67 % 0 lf 1010,7 hPa 0,0 l/m 0 min 0 min 0 W/m 8,4 km/h (2 Bft) 97,83 %
10.04.2016 23:36 11,7 C 10,6 C 8,3 C 67 % 0 lf 1010,6 hPa 0,0 l/m 0 min 0 min 0 W/m 8,4 km/h (2 Bft) 97,87 %
10.04.2016 23:38 11,7 C 10,6 C 8,3 C 68 % 0 lf 1010,6 hPa 0,0 l/m 0 min 0 min 0 W/m 10,5 km/h (2 Bft) 100,00 %
10.04.2016 23:40 11,6 C 10,6 C 8,3 C 68 % 0 lf 1010,6 hPa 0,0 l/m 0 min 0 min 0 W/m 10,5 km/h (2 Bft) 100,00 %
10.04.2016 23:42 11,6 C 10,6 C 8,3 C 68 % 0 lf 1010,6 hPa 0,0 l/m 0 min 0 min 0 W/m 8,4 km/h (2 Bft) 97,87 %
10.04.2016 23:44 11,5 C 10,6 C 8,3 C 68 % 0 lf 1010,6 hPa 0,0 l/m 0 min 0 min 0 W/m 10,5 km/h (2 Bft) 100,00 %
10.04.2016 23:46 11,5 C 10,6 C 8,3 C 68 % 0 lf 1010,6 hPa 0,0 l/m 0 min 0 min 0 W/m 10,5 km/h (2 Bft) 95,65 %
10.04.2016 23:48 11,4 C 10,0 C 8,3 C 68 % 0 lf 1010,6 hPa 0,0 l/m 0 min 0 min 0 W/m 10,5 km/h (2 Bft) 97,87 %
10.04.2016 23:50 11,4 C 10,6 C 7,8 C 68 % 0 lf 1010,6 hPa 0,0 l/m 0 min 0 min 0 W/m 10,5 km/h (2 Bft) 100,00 %
10.04.2016 23:52 11,3 C 10,6 C 8,3 C 69 % 0 lf 1010,6 hPa 0,0 l/m 0 min 0 min 0 W/m 10,5 km/h (2 Bft) 97,87 %
10.04.2016 23:54 11,3 C 10,6 C 8,3 C 69 % 0 lf 1010,6 hPa 0,0 l/m 0 min 0 min 0 W/m 10,5 km/h (2 Bft) 100,00 %
10.04.2016 23:56 11,3 C 10,6 C 8,3 C 69 % 0 lf 1010,6 hPa 0,0 l/m 0 min 0 min 0 W/m 10,5 km/h (2 Bft) 97,87 %
10.04.2016 23:58 11,2 C 11,1 C 8,9 C 69 % 0 lf 1010,6 hPa 0,0 l/m 0 min 0 min 0 W/m 10,5 km/h (2 Bft) 95,65 %
_ Min-Zeit 06:52 06:26 06:50 18:00 00:00 00:00 - - - - 05:00 11:50
Minimum _ 8,0 C 7,8 C 6,1 C 48 % 0 lf 1006,9 hPa - - - - 0,0 km/h (0 Bft) 85,11 %
_ Max-Zeit 16:14 15:02 11:44 09:02 09:10 11:16 00:00 10:00 07:20 13:06 18:00 00:02
Maximum _ 19,1 C 28,9 C 18,9 C 90 % 15 lf 1011,6 hPa 0,0 l/m 2 min 2 min 831 W/m 31,4 km/h
O (5 Bft)
100,00 %
Durchschnitt _ 12,6 C 14,8 C 11,3 C 68 % 0 lf 1009,6 hPa #0,0 l/m #7:58 h #12 min. 367 W/m 12,1 km/h (2 Bft) 96,28 %
© 2016 W. Hausmann